Time,TemperatureF,DewpointF,PressureIn,WindDirection,WindDirectionDegrees,WindSpeedMPH,WindSpeedGustMPH,Humidity,HourlyPrecipIn,Conditions,Clouds,dailyrainin,SolarRadiationWatts/m^2,SoftwareType,DateUTC
2013-08-18 00:01:00,63.7,59.1,30.03,SE,138,0.0,3.0,85,0.00,,,0.00,0,WeatherCatV1.15B25,2013-08-18 05:01:00,
2013-08-18 00:02:00,63.6,59.0,30.03,SE,138,1.0,3.0,85,0.00,,,0.00,0,WeatherCatV1.15B25,2013-08-18 05:02:00,
2013-08-18 00:03:00,63.6,59.0,30.03,SE,138,0.0,3.0,85,0.00,,,0.00,0,WeatherCatV1.15B25,2013-08-18 05:03:00,
2013-08-18 00:04:00,63.6,59.0,30.03,SE,138,0.0,3.0,85,0.00,,,0.00,0,WeatherCatV1.15B25,2013-08-18 05:04:00,
2013-08-18 00:07:00,63.5,59.2,30.03,SE,138,3.0,5.0,86,0.00,,,0.00,0,WeatherCatV1.15B25,2013-08-18 05:07:00,
2013-08-18 00:08:00,63.5,59.2,30.03,SE,139,1.0,6.0,86,0.00,,,0.00,0,WeatherCatV1.15B25,2013-08-18 05:08:00,
2013-08-18 00:09:00,63.5,59.2,30.03,SE,139,0.0,6.0,86,0.00,,,0.00,0,WeatherCatV1.15B25,2013-08-18 05:09:00,
2013-08-18 00:12:00,63.4,59.1,30.03,SE,138,2.0,5.0,86,0.00,,,0.00,0,WeatherCatV1.15B25,2013-08-18 05:12:00,
2013-08-18 00:13:00,63.4,59.1,30.03,SE,138,3.0,6.0,86,0.00,,,0.00,0,WeatherCatV1.15B25,2013-08-18 05:13:00,
2013-08-18 00:14:00,63.4,59.1,30.03,SE,139,4.0,6.0,86,0.00,,,0.00,0,WeatherCatV1.15B25,2013-08-18 05:14:00,
2013-08-18 00:17:00,63.3,59.0,30.03,SE,140,0.0,5.0,86,0.00,,,0.00,0,WeatherCatV1.15B25,2013-08-18 05:17:00,
2013-08-18 00:18:00,63.3,59.0,30.04,SE,140,3.0,3.0,86,0.00,,,0.00,0,WeatherCatV1.15B25,2013-08-18 05:18:00,
2013-08-18 00:19:00,63.2,58.9,30.03,SE,140,2.0,3.0,86,0.00,,,0.00,0,WeatherCatV1.15B25,2013-08-18 05:19:00,
2013-08-18 00:22:00,63.2,58.9,30.04,SE,140,2.0,3.0,86,0.00,,,0.00,0,WeatherCatV1.15B25,2013-08-18 05:22:00,
2013-08-18 00:23:00,63.2,58.9,30.03,SE,140,3.0,3.0,86,0.00,,,0.00,0,WeatherCatV1.15B25,2013-08-18 05:23:00,
2013-08-18 00:24:00,63.2,58.9,30.04,SE,140,0.0,3.0,86,0.00,,,0.00,0,WeatherCatV1.15B25,2013-08-18 05:24:00,
2013-08-18 00:25:00,63.2,58.9,30.03,SE,140,2.0,6.0,86,0.00,,,0.00,0,WeatherCatV1.15B25,2013-08-18 05:25:00,
2013-08-18 00:28:00,63.1,58.8,30.03,SE,140,0.0,6.0,86,0.00,,,0.00,0,WeatherCatV1.15B25,2013-08-18 05:28:00,
2013-08-18 00:29:00,63.1,58.8,30.03,SE,140,2.0,3.0,86,0.00,,,0.00,0,WeatherCatV1.15B25,2013-08-18 05:29:00,
2013-08-18 00:30:00,63.1,58.8,30.04,SE,140,0.0,3.0,86,0.00,,,0.00,0,WeatherCatV1.15B25,2013-08-18 05:30:00,
2013-08-18 00:33:00,63.1,58.8,30.03,SE,140,0.0,4.0,86,0.00,,,0.00,0,WeatherCatV1.15B25,2013-08-18 05:33:00,
2013-08-18 00:35:00,63.0,58.7,30.04,SE,140,3.0,3.0,86,0.00,,,0.00,0,WeatherCatV1.15B25,2013-08-18 05:35:00,
2013-08-18 00:38:00,63.0,58.7,30.03,SE,140,2.0,3.0,86,0.00,,,0.00,0,WeatherCatV1.15B25,2013-08-18 05:38:00,
2013-08-18 00:40:00,62.9,58.6,30.04,SE,140,0.0,3.0,86,0.00,,,0.00,0,WeatherCatV1.15B25,2013-08-18 05:40:00,
2013-08-18 00:43:00,62.9,58.6,30.04,SE,136,0.0,5.0,86,0.00,,,0.00,0,WeatherCatV1.15B25,2013-08-18 05:43:00,
2013-08-18 00:44:00,62.9,58.6,30.04,SE,136,0.0,5.0,86,0.00,,,0.00,0,WeatherCatV1.15B25,2013-08-18 05:44:00,
2013-08-18 00:45:00,62.8,58.5,30.04,SE,136,0.0,2.0,86,0.00,,,0.00,0,WeatherCatV1.15B25,2013-08-18 05:45:00,
2013-08-18 00:46:00,62.8,58.5,30.04,SE,136,0.0,2.0,86,0.00,,,0.00,0,WeatherCatV1.15B25,2013-08-18 05:46:00,
2013-08-18 00:49:00,62.8,58.5,30.04,SE,136,0.0,5.0,86,0.00,,,0.00,0,WeatherCatV1.15B25,2013-08-18 05:49:00,
2013-08-18 00:50:00,62.7,58.4,30.04,SE,134,0.0,6.0,86,0.00,,,0.00,0,WeatherCatV1.15B25,2013-08-18 05:50:00,
2013-08-18 00:51:00,62.7,58.4,30.04,SE,134,0.0,6.0,86,0.00,,,0.00,0,WeatherCatV1.15B25,2013-08-18 05:51:00,
2013-08-18 00:54:00,62.6,58.3,30.04,SE,134,0.0,3.0,86,0.00,,,0.00,0,WeatherCatV1.15B25,2013-08-18 05:54:00,
2013-08-18 00:55:00,62.6,58.3,30.04,SE,133,4.0,4.0,86,0.00,,,0.00,0,WeatherCatV1.15B25,2013-08-18 05:55:00,
2013-08-18 00:56:00,62.6,58.3,30.04,SE,134,0.0,4.0,86,0.00,,,0.00,0,WeatherCatV1.15B25,2013-08-18 05:56:00,
2013-08-18 00:59:00,62.5,58.6,30.04,SE,134,2.0,3.0,87,0.00,,,0.00,0,WeatherCatV1.15B25,2013-08-18 05:59:00,
2013-08-18 01:00:00,62.5,58.2,30.04,SE,134,1.0,3.0,86,0.00,,,0.00,0,WeatherCatV1.15B25,2013-08-18 06:00:00,
2013-08-18 01:01:00,62.5,58.2,30.04,SE,134,2.0,5.0,86,0.00,,,0.00,0,WeatherCatV1.15B25,2013-08-18 06:01:00,
2013-08-18 01:04:00,62.5,58.2,30.04,SE,134,3.0,4.0,86,0.00,,,0.00,0,WeatherCatV1.15B25,2013-08-18 06:04:00,
2013-08-18 01:05:00,62.5,58.2,30.04,SE,134,0.0,4.0,86,0.00,,,0.00,0,WeatherCatV1.15B25,2013-08-18 06:05:00,
2013-08-18 01:07:00,62.5,58.2,30.04,SE,134,2.0,4.0,86,0.00,,,0.00,0,WeatherCatV1.15B25,2013-08-18 06:07:00,
2013-08-18 01:09:00,62.5,58.2,30.04,SE,134,0.0,2.0,86,0.00,,,0.00,0,WeatherCatV1.15B25,2013-08-18 06:09:00,
2013-08-18 01:11:00,62.5,58.2,30.04,SE,134,0.0,4.0,86,0.00,,,0.00,0,WeatherCatV1.15B25,2013-08-18 06:11:00,
2013-08-18 01:12:00,62.5,58.2,30.04,SE,134,2.0,4.0,86,0.00,,,0.00,0,WeatherCatV1.15B25,2013-08-18 06:12:00,
2013-08-18 01:14:00,62.5,58.2,30.04,SE,134,1.0,4.0,86,0.00,,,0.00,0,WeatherCatV1.15B25,2013-08-18 06:14:00,
2013-08-18 01:15:00,62.4,58.2,30.04,SE,134,1.0,4.0,86,0.00,,,0.00,0,WeatherCatV1.15B25,2013-08-18 06:15:00,
2013-08-18 01:16:00,62.5,58.2,30.04,SE,134,2.0,5.0,86,0.00,,,0.00,0,WeatherCatV1.15B25,2013-08-18 06:16:00,
2013-08-18 01:17:00,62.5,58.2,30.04,SE,134,3.0,5.0,86,0.00,,,0.00,0,WeatherCatV1.15B25,2013-08-18 06:17:00,
2013-08-18 01:19:00,62.5,58.2,30.04,SE,134,0.0,3.0,86,0.00,,,0.00,0,WeatherCatV1.15B25,2013-08-18 06:19:00,
2013-08-18 01:20:00,62.5,58.2,30.04,SE,134,0.0,3.0,86,0.00,,,0.00,0,WeatherCatV1.15B25,2013-08-18 06:20:00,
2013-08-18 01:22:00,62.5,58.2,30.04,SE,134,0.0,4.0,86,0.00,,,0.00,0,WeatherCatV1.15B25,2013-08-18 06:22:00,
2013-08-18 01:24:00,62.5,58.2,30.04,SE,134,0.0,1.0,86,0.00,,,0.00,0,WeatherCatV1.15B25,2013-08-18 06:24:00,
2013-08-18 01:25:00,62.4,58.2,30.04,SE,137,2.0,6.0,86,0.00,,,0.00,0,WeatherCatV1.15B25,2013-08-18 06:25:00,
2013-08-18 01:27:00,62.4,58.2,30.04,SE,137,1.0,6.0,86,0.00,,,0.00,0,WeatherCatV1.15B25,2013-08-18 06:27:00,
2013-08-18 01:29:00,62.4,58.2,30.04,SE,137,2.0,5.0,86,0.00,,,0.00,0,WeatherCatV1.15B25,2013-08-18 06:29:00,
2013-08-18 01:30:00,62.3,58.1,30.04,SSW,196,4.0,9.0,86,0.00,,,0.00,0,WeatherCatV1.15B25,2013-08-18 06:30:00,
2013-08-18 01:31:00,62.3,58.1,30.04,SSW,196,2.0,9.0,86,0.00,,,0.00,0,WeatherCatV1.15B25,2013-08-18 06:31:00,
2013-08-18 01:32:00,62.3,58.1,30.04,SSW,196,1.0,9.0,86,0.00,,,0.00,0,WeatherCatV1.15B25,2013-08-18 06:32:00,
2013-08-18 01:35:00,62.3,58.1,30.04,SSW,192,3.0,4.0,86,0.00,,,0.00,0,WeatherCatV1.15B25,2013-08-18 06:35:00,
2013-08-18 01:36:00,62.2,58.0,30.04,SSW,194,1.0,5.0,86,0.00,,,0.00,0,WeatherCatV1.15B25,2013-08-18 06:36:00,
2013-08-18 01:37:00,62.2,58.0,30.04,SSW,194,4.0,5.0,86,0.00,,,0.00,0,WeatherCatV1.15B25,2013-08-18 06:37:00,
2013-08-18 01:40:00,62.2,58.0,30.04,South,191,3.0,5.0,86,0.00,,,0.00,0,WeatherCatV1.15B25,2013-08-18 06:40:00,
2013-08-18 01:41:00,62.1,57.9,30.04,South,189,3.0,5.0,86,0.00,,,0.00,0,WeatherCatV1.15B25,2013-08-18 06:41:00,
2013-08-18 01:42:00,62.1,57.9,30.04,South,188,5.0,8.0,86,0.00,,,0.00,0,WeatherCatV1.15B25,2013-08-18 06:42:00,
2013-08-18 01:45:00,62.1,57.9,30.04,South,186,2.0,4.0,86,0.00,,,0.00,0,WeatherCatV1.15B25,2013-08-18 06:45:00,
2013-08-18 01:46:00,62.1,57.9,30.04,South,186,1.0,4.0,86,0.00,,,0.00,0,WeatherCatV1.15B25,2013-08-18 06:46:00,
2013-08-18 01:47:00,62.1,57.9,30.04,South,186,1.0,3.0,86,0.00,,,0.00,0,WeatherCatV1.15B25,2013-08-18 06:47:00,
2013-08-18 01:48:00,62.1,57.9,30.04,South,186,3.0,4.0,86,0.00,,,0.00,0,WeatherCatV1.15B25,2013-08-18 06:48:00,
2013-08-18 01:50:00,62.0,57.8,30.04,South,186,0.0,1.0,86,0.00,,,0.00,0,WeatherCatV1.15B25,2013-08-18 06:50:00,
2013-08-18 01:51:00,62.0,57.8,30.04,South,186,0.0,2.0,86,0.00,,,0.00,0,WeatherCatV1.15B25,2013-08-18 06:51:00,
2013-08-18 01:52:00,62.0,57.8,30.04,South,184,3.0,4.0,86,0.00,,,0.00,0,WeatherCatV1.15B25,2013-08-18 06:52:00,
2013-08-18 01:53:00,62.0,57.8,30.04,South,184,4.0,4.0,86,0.00,,,0.00,0,WeatherCatV1.15B25,2013-08-18 06:53:00,
2013-08-18 01:55:00,62.0,57.8,30.04,South,183,1.0,6.0,86,0.00,,,0.00,0,WeatherCatV1.15B25,2013-08-18 06:55:00,
2013-08-18 01:56:00,62.0,57.8,30.04,South,184,0.0,6.0,86,0.00,,,0.00,0,WeatherCatV1.15B25,2013-08-18 06:56:00,
2013-08-18 01:57:00,62.0,57.8,30.04,South,184,0.0,2.0,86,0.00,,,0.00,0,WeatherCatV1.15B25,2013-08-18 06:57:00,
2013-08-18 01:58:00,61.9,58.0,30.04,South,184,0.0,3.0,87,0.00,,,0.00,0,WeatherCatV1.15B25,2013-08-18 06:58:00,
2013-08-18 02:01:00,61.9,58.0,30.04,South,181,4.0,7.0,87,0.00,,,0.00,0,WeatherCatV1.15B25,2013-08-18 07:01:00,
2013-08-18 02:02:00,61.9,58.0,30.04,South,181,2.0,5.0,87,0.00,,,0.00,0,WeatherCatV1.15B25,2013-08-18 07:02:00,
2013-08-18 02:03:00,61.8,57.9,30.04,South,182,3.0,5.0,87,0.00,,,0.00,0,WeatherCatV1.15B25,2013-08-18 07:03:00,
2013-08-18 02:06:00,61.8,57.6,30.04,South,178,5.0,5.0,86,0.00,,,0.00,0,WeatherCatV1.15B25,2013-08-18 07:06:00,
2013-08-18 02:07:00,61.8,57.6,30.04,South,188,2.0,5.0,86,0.00,,,0.00,0,WeatherCatV1.15B25,2013-08-18 07:07:00,
2013-08-18 02:08:00,61.8,57.6,30.04,South,188,0.0,5.0,86,0.00,,,0.00,0,WeatherCatV1.15B25,2013-08-18 07:08:00,
2013-08-18 02:09:00,61.8,57.6,30.04,South,188,0.0,4.0,86,0.00,,,0.00,0,WeatherCatV1.15B25,2013-08-18 07:09:00,
2013-08-18 02:11:00,61.7,57.5,30.04,South,188,5.0,5.0,86,0.00,,,0.00,0,WeatherCatV1.15B25,2013-08-18 07:11:00,
2013-08-18 02:12:00,61.7,57.5,30.04,South,181,0.0,5.0,86,0.00,,,0.00,0,WeatherCatV1.15B25,2013-08-18 07:12:00,
2013-08-18 02:13:00,61.7,57.5,30.04,South,180,0.0,4.0,86,0.00,,,0.00,0,WeatherCatV1.15B25,2013-08-18 07:13:00,
2013-08-18 02:14:00,61.7,57.5,30.04,South,180,1.0,4.0,86,0.00,,,0.00,0,WeatherCatV1.15B25,2013-08-18 07:14:00,
2013-08-18 02:16:00,61.6,57.4,30.04,South,177,2.0,6.0,86,0.00,,,0.00,0,WeatherCatV1.15B25,2013-08-18 07:16:00,
2013-08-18 02:17:00,61.6,57.4,30.04,South,178,3.0,7.0,86,0.00,,,0.00,0,WeatherCatV1.15B25,2013-08-18 07:17:00,
2013-08-18 02:18:00,61.6,57.4,30.04,South,179,2.0,6.0,86,0.00,,,0.00,0,WeatherCatV1.15B25,2013-08-18 07:18:00,
2013-08-18 02:19:00,61.6,57.4,30.04,South,179,2.0,6.0,86,0.00,,,0.00,0,WeatherCatV1.15B25,2013-08-18 07:19:00,
2013-08-18 02:21:00,61.5,57.3,30.04,South,178,4.0,5.0,86,0.00,,,0.00,0,WeatherCatV1.15B25,2013-08-18 07:21:00,
2013-08-18 02:22:00,61.5,57.3,30.04,South,179,4.0,5.0,86,0.00,,,0.00,0,WeatherCatV1.15B25,2013-08-18 07:22:00,
2013-08-18 02:23:00,61.5,57.3,30.04,South,180,2.0,5.0,86,0.00,,,0.00,0,WeatherCatV1.15B25,2013-08-18 07:23:00,
2013-08-18 02:24:00,61.5,57.3,30.04,South,171,2.0,5.0,86,0.00,,,0.00,0,WeatherCatV1.15B25,2013-08-18 07:24:00,
2013-08-18 02:26:00,61.4,57.2,30.03,South,171,1.0,6.0,86,0.00,,,0.00,0,WeatherCatV1.15B25,2013-08-18 07:26:00,
2013-08-18 02:28:00,61.4,57.2,30.03,SSE,165,6.0,6.0,86,0.00,,,0.00,0,WeatherCatV1.15B25,2013-08-18 07:28:00,
2013-08-18 02:29:00,61.4,57.2,30.03,SSE,165,2.0,6.0,86,0.00,,,0.00,0,WeatherCatV1.15B25,2013-08-18 07:29:00,
2013-08-18 02:30:00,61.4,57.2,30.03,SSE,164,4.0,6.0,86,0.00,,,0.00,0,WeatherCatV1.15B25,2013-08-18 07:30:00,
2013-08-18 02:32:00,61.4,57.2,30.03,SSE,164,3.0,6.0,86,0.00,,,0.00,0,WeatherCatV1.15B25,2013-08-18 07:32:00,
2013-08-18 02:33:00,61.4,57.2,30.03,SSE,167,1.0,5.0,86,0.00,,,0.00,0,WeatherCatV1.15B25,2013-08-18 07:33:00,
2013-08-18 02:34:00,61.4,57.2,30.03,SSE,167,3.0,5.0,86,0.00,,,0.00,0,WeatherCatV1.15B25,2013-08-18 07:34:00,
2013-08-18 02:35:00,61.4,57.2,30.03,SSE,168,4.0,4.0,86,0.00,,,0.00,0,WeatherCatV1.15B25,2013-08-18 07:35:00,
2013-08-18 02:37:00,61.4,57.2,30.03,South,171,0.0,1.0,86,0.00,,,0.00,0,WeatherCatV1.15B25,2013-08-18 07:37:00,
2013-08-18 02:38:00,61.4,57.2,30.03,SSE,168,3.0,6.0,86,0.00,,,0.00,0,WeatherCatV1.15B25,2013-08-18 07:38:00,
2013-08-18 02:39:00,61.4,57.2,30.03,SSE,168,0.0,6.0,86,0.00,,,0.00,0,WeatherCatV1.15B25,2013-08-18 07:39:00,
2013-08-18 02:40:00,61.4,57.2,30.03,SSE,168,2.0,6.0,86,0.00,,,0.00,0,WeatherCatV1.15B25,2013-08-18 07:40:00,
2013-08-18 02:42:00,61.4,57.2,30.03,South,175,0.0,6.0,86,0.00,,,0.00,0,WeatherCatV1.15B25,2013-08-18 07:42:00,
2013-08-18 02:44:00,61.4,57.2,30.03,South,169,2.0,10.0,86,0.00,,,0.00,0,WeatherCatV1.15B25,2013-08-18 07:44:00,
2013-08-18 02:45:00,61.4,57.2,30.03,South,171,2.0,10.0,86,0.00,,,0.00,0,WeatherCatV1.15B25,2013-08-18 07:45:00,
2013-08-18 02:47:00,61.4,56.8,30.03,South,177,3.0,7.0,85,0.00,,,0.00,0,WeatherCatV1.15B25,2013-08-18 07:47:00,
2013-08-18 02:49:00,61.4,56.8,30.03,SSE,168,4.0,6.0,85,0.00,,,0.00,0,WeatherCatV1.15B25,2013-08-18 07:49:00,
2013-08-18 02:50:00,61.4,56.8,30.03,SSE,164,3.0,6.0,85,0.00,,,0.00,0,WeatherCatV1.15B25,2013-08-18 07:50:00,
2013-08-18 02:52:00,61.5,56.9,30.03,SSE,165,5.0,6.0,85,0.00,,,0.00,0,WeatherCatV1.15B25,2013-08-18 07:52:00,
2013-08-18 02:54:00,61.5,56.9,30.03,SSE,167,2.0,5.0,85,0.00,,,0.00,0,WeatherCatV1.15B25,2013-08-18 07:54:00,
2013-08-18 02:55:00,61.5,56.9,30.03,SSE,167,1.0,5.0,85,0.00,,,0.00,0,WeatherCatV1.15B25,2013-08-18 07:55:00,
2013-08-18 02:57:00,61.4,56.8,30.03,SSE,168,0.0,4.0,85,0.00,,,0.00,0,WeatherCatV1.15B25,2013-08-18 07:57:00,
2013-08-18 02:59:00,61.4,56.8,30.03,SSE,168,0.0,2.0,85,0.00,,,0.00,0,WeatherCatV1.15B25,2013-08-18 07:59:00,
2013-08-18 03:00:00,61.4,56.8,30.03,SSE,168,1.0,6.0,85,0.00,,,0.00,0,WeatherCatV1.15B25,2013-08-18 08:00:00,
2013-08-18 03:03:00,61.3,56.7,30.03,South,169,1.0,5.0,85,0.00,,,0.00,0,WeatherCatV1.15B25,2013-08-18 08:03:00,
2013-08-18 03:04:00,61.3,56.7,30.03,South,170,2.0,6.0,85,0.00,,,0.00,0,WeatherCatV1.15B25,2013-08-18 08:04:00,
2013-08-18 03:05:00,61.3,56.7,30.03,South,170,0.0,5.0,85,0.00,,,0.00,0,WeatherCatV1.15B25,2013-08-18 08:05:00,
2013-08-18 03:06:00,61.3,56.7,30.03,South,170,4.0,4.0,85,0.00,,,0.00,0,WeatherCatV1.15B25,2013-08-18 08:06:00,
2013-08-18 03:08:00,61.3,56.7,30.03,South,171,5.0,5.0,85,0.00,,,0.00,0,WeatherCatV1.15B25,2013-08-18 08:08:00,
2013-08-18 03:09:00,61.3,56.7,30.03,SSE,168,3.0,7.0,85,0.00,,,0.00,0,WeatherCatV1.15B25,2013-08-18 08:09:00,
2013-08-18 03:10:00,61.3,56.7,30.03,South,169,2.0,7.0,85,0.00,,,0.00,0,WeatherCatV1.15B25,2013-08-18 08:10:00,
2013-08-18 03:11:00,61.3,56.7,30.03,South,171,5.0,6.0,85,0.00,,,0.00,0,WeatherCatV1.15B25,2013-08-18 08:11:00,
2013-08-18 03:13:00,61.3,56.7,30.03,South,171,5.0,7.0,85,0.00,,,0.00,0,WeatherCatV1.15B25,2013-08-18 08:13:00,
2013-08-18 03:14:00,61.2,56.7,30.03,South,171,3.0,5.0,85,0.00,,,0.00,0,WeatherCatV1.15B25,2013-08-18 08:14:00,
2013-08-18 03:15:00,61.2,56.7,30.03,South,186,3.0,8.0,85,0.00,,,0.00,0,WeatherCatV1.15B25,2013-08-18 08:15:00,
2013-08-18 03:16:00,61.2,56.7,30.03,South,190,2.0,10.0,85,0.00,,,0.00,0,WeatherCatV1.15B25,2013-08-18 08:16:00,
2013-08-18 03:18:00,61.2,56.7,30.03,SSW,194,3.0,9.0,85,0.00,,,0.00,0,WeatherCatV1.15B25,2013-08-18 08:18:00,
2013-08-18 03:19:00,61.2,56.7,30.03,SSW,193,2.0,9.0,85,0.00,,,0.00,0,WeatherCatV1.15B25,2013-08-18 08:19:00,
2013-08-18 03:20:00,61.1,56.6,30.03,SSW,192,2.0,9.0,85,0.00,,,0.00,0,WeatherCatV1.15B25,2013-08-18 08:20:00,
2013-08-18 03:21:00,61.1,56.6,30.03,SSW,192,2.0,5.0,85,0.00,,,0.00,0,WeatherCatV1.15B25,2013-08-18 08:21:00,
2013-08-18 03:22:00,61.1,56.6,30.03,SSW,194,5.0,7.0,85,0.00,,,0.00,0,WeatherCatV1.15B25,2013-08-18 08:22:00,
2013-08-18 03:23:00,61.1,56.6,30.03,SSW,192,4.0,7.0,85,0.00,,,0.00,0,WeatherCatV1.15B25,2013-08-18 08:23:00,
2013-08-18 03:24:00,61.1,56.6,30.03,SSW,192,2.0,7.0,85,0.00,,,0.00,0,WeatherCatV1.15B25,2013-08-18 08:24:00,
2013-08-18 03:25:00,61.1,56.6,30.03,SSE,151,3.0,10.0,85,0.00,,,0.00,0,WeatherCatV1.15B25,2013-08-18 08:25:00,
2013-08-18 03:26:00,61.1,56.6,30.03,South,175,3.0,10.0,85,0.00,,,0.00,0,WeatherCatV1.15B25,2013-08-18 08:26:00,
2013-08-18 03:28:00,61.1,56.6,30.03,South,173,0.0,5.0,85,0.00,,,0.00,0,WeatherCatV1.15B25,2013-08-18 08:28:00,
2013-08-18 03:29:00,61.1,56.6,30.03,South,172,1.0,4.0,85,0.00,,,0.00,0,WeatherCatV1.15B25,2013-08-18 08:29:00,
2013-08-18 03:30:00,61.1,56.6,30.03,South,173,2.0,4.0,85,0.00,,,0.00,0,WeatherCatV1.15B25,2013-08-18 08:30:00,
2013-08-18 03:31:00,61.1,56.6,30.03,South,175,2.0,6.0,85,0.00,,,0.00,0,WeatherCatV1.15B25,2013-08-18 08:31:00,
2013-08-18 03:33:00,61.1,56.6,30.03,South,178,2.0,6.0,85,0.00,,,0.00,0,WeatherCatV1.15B25,2013-08-18 08:33:00,
2013-08-18 03:34:00,61.2,56.7,30.03,South,178,3.0,5.0,85,0.00,,,0.00,0,WeatherCatV1.15B25,2013-08-18 08:34:00,
2013-08-18 03:35:00,61.2,56.7,30.03,South,175,2.0,5.0,85,0.00,,,0.00,0,WeatherCatV1.15B25,2013-08-18 08:35:00,
2013-08-18 03:37:00,61.2,56.7,30.03,South,178,1.0,7.0,85,0.00,,,0.00,0,WeatherCatV1.15B25,2013-08-18 08:37:00,
2013-08-18 03:38:00,61.2,56.7,30.03,South,178,2.0,5.0,85,0.00,,,0.00,0,WeatherCatV1.15B25,2013-08-18 08:38:00,
2013-08-18 03:39:00,61.3,56.7,30.03,South,178,2.0,5.0,85,0.00,,,0.00,0,WeatherCatV1.15B25,2013-08-18 08:39:00,
2013-08-18 03:40:00,61.3,56.7,30.03,South,178,3.0,4.0,85,0.00,,,0.00,0,WeatherCatV1.15B25,2013-08-18 08:40:00,
2013-08-18 03:42:00,61.3,56.7,30.03,South,178,3.0,4.0,85,0.00,,,0.00,0,WeatherCatV1.15B25,2013-08-18 08:42:00,
2013-08-18 03:43:00,61.3,56.7,30.03,South,178,0.0,5.0,85,0.00,,,0.00,0,WeatherCatV1.15B25,2013-08-18 08:43:00,
2013-08-18 03:44:00,61.3,56.7,30.03,South,178,2.0,3.0,85,0.00,,,0.00,0,WeatherCatV1.15B25,2013-08-18 08:44:00,
2013-08-18 03:45:00,61.3,56.7,30.03,South,178,3.0,4.0,85,0.00,,,0.00,0,WeatherCatV1.15B25,2013-08-18 08:45:00,
2013-08-18 03:46:00,61.3,56.7,30.03,South,178,4.0,6.0,85,0.00,,,0.00,0,WeatherCatV1.15B25,2013-08-18 08:46:00,
2013-08-18 03:47:00,61.3,56.7,30.03,South,175,1.0,6.0,85,0.00,,,0.00,0,WeatherCatV1.15B25,2013-08-18 08:47:00,
2013-08-18 03:48:00,61.3,56.7,30.03,South,182,4.0,6.0,85,0.00,,,0.00,0,WeatherCatV1.15B25,2013-08-18 08:48:00,
2013-08-18 03:49:00,61.2,56.7,30.03,South,180,3.0,7.0,85,0.00,,,0.00,0,WeatherCatV1.15B25,2013-08-18 08:49:00,
2013-08-18 03:50:00,61.2,56.7,30.02,South,180,6.0,7.0,85,0.00,,,0.00,0,WeatherCatV1.15B25,2013-08-18 08:50:00,
2013-08-18 03:51:00,61.2,56.7,30.02,South,187,6.0,7.0,85,0.00,,,0.00,0,WeatherCatV1.15B25,2013-08-18 08:51:00,
2013-08-18 03:52:00,61.2,56.7,30.03,South,187,1.0,6.0,85,0.00,,,0.00,0,WeatherCatV1.15B25,2013-08-18 08:52:00,
2013-08-18 03:53:00,61.3,56.7,30.02,South,186,4.0,4.0,85,0.00,,,0.00,0,WeatherCatV1.15B25,2013-08-18 08:53:00,
2013-08-18 03:55:00,61.2,56.7,30.02,South,186,1.0,1.0,85,0.00,,,0.00,0,WeatherCatV1.15B25,2013-08-18 08:55:00,
2013-08-18 03:56:00,61.2,56.7,30.02,South,186,0.0,3.0,85,0.00,,,0.00,0,WeatherCatV1.15B25,2013-08-18 08:56:00,
2013-08-18 03:57:00,61.2,56.7,30.02,South,185,5.0,5.0,85,0.00,,,0.00,0,WeatherCatV1.15B25,2013-08-18 08:57:00,
2013-08-18 03:59:00,61.2,56.7,30.02,South,177,3.0,6.0,85,0.00,,,0.00,0,WeatherCatV1.15B25,2013-08-18 08:59:00,
2013-08-18 04:00:00,61.3,56.7,30.02,South,176,1.0,4.0,85,0.00,,,0.00,0,WeatherCatV1.15B25,2013-08-18 09:00:00,
2013-08-18 04:01:00,61.3,56.7,30.03,South,178,5.0,6.0,85,0.00,,,0.00,0,WeatherCatV1.15B25,2013-08-18 09:01:00,
2013-08-18 04:02:00,61.3,56.7,30.03,South,178,3.0,6.0,85,0.00,,,0.00,0,WeatherCatV1.15B25,2013-08-18 09:02:00,
2013-08-18 04:04:00,61.3,56.4,30.02,South,180,3.0,6.0,84,0.00,,,0.00,0,WeatherCatV1.15B25,2013-08-18 09:04:00,
2013-08-18 04:05:00,61.3,56.4,30.03,South,178,3.0,6.0,84,0.00,,,0.00,0,WeatherCatV1.15B25,2013-08-18 09:05:00,
2013-08-18 04:06:00,61.3,56.4,30.02,South,180,2.0,6.0,84,0.00,,,0.00,0,WeatherCatV1.15B25,2013-08-18 09:06:00,
2013-08-18 04:08:00,61.3,56.4,30.03,South,180,2.0,5.0,84,0.00,,,0.00,0,WeatherCatV1.15B25,2013-08-18 09:08:00,
2013-08-18 04:09:00,61.4,56.5,30.02,South,178,4.0,5.0,84,0.00,,,0.00,0,WeatherCatV1.15B25,2013-08-18 09:09:00,
2013-08-18 04:10:00,61.3,56.4,30.02,South,178,5.0,5.0,84,0.00,,,0.00,0,WeatherCatV1.15B25,2013-08-18 09:10:00,
2013-08-18 04:11:00,61.3,56.4,30.02,South,178,3.0,5.0,84,0.00,,,0.00,0,WeatherCatV1.15B25,2013-08-18 09:11:00,
2013-08-18 04:12:00,61.3,56.4,30.03,South,176,2.0,5.0,84,0.00,,,0.00,0,WeatherCatV1.15B25,2013-08-18 09:12:00,
2013-08-18 04:13:00,61.3,56.4,30.02,South,182,3.0,7.0,84,0.00,,,0.00,0,WeatherCatV1.15B25,2013-08-18 09:13:00,
2013-08-18 04:14:00,61.3,56.4,30.02,South,182,3.0,5.0,84,0.00,,,0.00,0,WeatherCatV1.15B25,2013-08-18 09:14:00,
2013-08-18 04:15:00,61.3,56.4,30.02,South,182,3.0,6.0,84,0.00,,,0.00,0,WeatherCatV1.15B25,2013-08-18 09:15:00,
2013-08-18 04:16:00,61.3,56.4,30.02,South,182,3.0,6.0,84,0.00,,,0.00,0,WeatherCatV1.15B25,2013-08-18 09:16:00,
2013-08-18 04:17:00,61.3,56.4,30.03,South,182,2.0,5.0,84,0.00,,,0.00,0,WeatherCatV1.15B25,2013-08-18 09:17:00,
2013-08-18 04:18:00,61.3,56.4,30.02,South,182,3.0,4.0,84,0.00,,,0.00,0,WeatherCatV1.15B25,2013-08-18 09:18:00,
2013-08-18 04:20:00,61.3,56.4,30.02,South,182,3.0,6.0,84,0.00,,,0.00,0,WeatherCatV1.15B25,2013-08-18 09:20:00,
2013-08-18 04:21:00,61.3,56.4,30.03,South,190,2.0,9.0,84,0.00,,,0.00,0,WeatherCatV1.15B25,2013-08-18 09:21:00,
2013-08-18 04:22:00,61.2,56.3,30.02,South,190,2.0,9.0,84,0.00,,,0.00,0,WeatherCatV1.15B25,2013-08-18 09:22:00,
2013-08-18 04:23:00,61.2,56.3,30.02,South,190,0.0,4.0,84,0.00,,,0.00,0,WeatherCatV1.15B25,2013-08-18 09:23:00,
2013-08-18 04:25:00,61.2,56.3,30.02,South,191,2.0,9.0,84,0.00,,,0.00,0,WeatherCatV1.15B25,2013-08-18 09:25:00,
2013-08-18 04:26:00,61.2,56.3,30.02,SSW,192,10.0,10.0,84,0.00,,,0.00,0,WeatherCatV1.15B25,2013-08-18 09:26:00,
2013-08-18 04:27:00,61.2,56.3,30.02,South,188,8.0,10.0,84,0.00,,,0.00,0,WeatherCatV1.15B25,2013-08-18 09:27:00,
2013-08-18 04:28:00,61.2,56.3,30.03,South,188,6.0,9.0,84,0.00,,,0.00,0,WeatherCatV1.15B25,2013-08-18 09:28:00,
2013-08-18 04:30:00,61.2,56.3,30.02,South,188,1.0,7.0,84,0.00,,,0.00,0,WeatherCatV1.15B25,2013-08-18 09:30:00,
2013-08-18 04:31:00,61.2,56.7,30.02,South,188,2.0,4.0,85,0.00,,,0.00,0,WeatherCatV1.15B25,2013-08-18 09:31:00,
2013-08-18 04:32:00,61.1,56.6,30.02,South,188,0.0,6.0,85,0.00,,,0.00,0,WeatherCatV1.15B25,2013-08-18 09:32:00,
2013-08-18 04:33:00,61.1,56.6,30.02,South,188,1.0,6.0,85,0.00,,,0.00,0,WeatherCatV1.15B25,2013-08-18 09:33:00,
2013-08-18 04:35:00,61.1,56.6,30.02,South,188,3.0,6.0,85,0.00,,,0.00,0,WeatherCatV1.15B25,2013-08-18 09:35:00,
2013-08-18 04:36:00,61.0,56.5,30.02,South,188,0.0,6.0,85,0.00,,,0.00,0,WeatherCatV1.15B25,2013-08-18 09:36:00,
2013-08-18 04:37:00,61.1,56.6,30.02,South,188,3.0,5.0,85,0.00,,,0.00,0,WeatherCatV1.15B25,2013-08-18 09:37:00,
2013-08-18 04:38:00,61.0,56.5,30.02,South,186,5.0,5.0,85,0.00,,,0.00,0,WeatherCatV1.15B25,2013-08-18 09:38:00,
2013-08-18 04:40:00,61.0,56.5,30.02,South,186,0.0,5.0,85,0.00,,,0.00,0,WeatherCatV1.15B25,2013-08-18 09:40:00,
2013-08-18 04:41:00,61.0,56.5,30.02,South,186,0.0,5.0,85,0.00,,,0.00,0,WeatherCatV1.15B25,2013-08-18 09:41:00,
2013-08-18 04:42:00,61.0,56.5,30.02,South,186,3.0,3.0,85,0.00,,,0.00,0,WeatherCatV1.15B25,2013-08-18 09:42:00,
2013-08-18 04:44:00,61.0,56.5,30.02,South,186,0.0,3.0,85,0.00,,,0.00,0,WeatherCatV1.15B25,2013-08-18 09:44:00,
2013-08-18 04:45:00,61.0,56.5,30.02,South,186,1.0,3.0,85,0.00,,,0.00,0,WeatherCatV1.15B25,2013-08-18 09:45:00,
2013-08-18 04:46:00,61.0,56.5,30.02,South,184,1.0,5.0,85,0.00,,,0.00,0,WeatherCatV1.15B25,2013-08-18 09:46:00,
2013-08-18 04:47:00,61.0,56.5,30.02,South,183,4.0,5.0,85,0.00,,,0.00,0,WeatherCatV1.15B25,2013-08-18 09:47:00,
2013-08-18 04:48:00,61.0,56.5,30.02,South,182,3.0,5.0,85,0.00,,,0.00,0,WeatherCatV1.15B25,2013-08-18 09:48:00,
2013-08-18 04:49:00,61.0,56.5,30.02,South,182,6.0,6.0,85,0.00,,,0.00,0,WeatherCatV1.15B25,2013-08-18 09:49:00,
2013-08-18 04:50:00,61.0,56.5,30.02,South,174,5.0,9.0,85,0.00,,,0.00,0,WeatherCatV1.15B25,2013-08-18 09:50:00,
2013-08-18 04:51:00,61.0,56.5,30.02,South,174,4.0,5.0,85,0.00,,,0.00,0,WeatherCatV1.15B25,2013-08-18 09:51:00,
2013-08-18 04:52:00,61.0,56.5,30.02,South,174,2.0,5.0,85,0.00,,,0.00,0,WeatherCatV1.15B25,2013-08-18 09:52:00,
2013-08-18 04:53:00,61.0,56.5,30.02,South,173,2.0,5.0,85,0.00,,,0.00,0,WeatherCatV1.15B25,2013-08-18 09:53:00,
2013-08-18 04:54:00,61.0,56.5,30.02,South,174,2.0,4.0,85,0.00,,,0.00,0,WeatherCatV1.15B25,2013-08-18 09:54:00,
2013-08-18 04:55:00,61.0,56.5,30.02,South,173,0.0,2.0,85,0.00,,,0.00,0,WeatherCatV1.15B25,2013-08-18 09:55:00,
2013-08-18 04:57:00,60.9,56.4,30.02,South,174,1.0,3.0,85,0.00,,,0.00,0,WeatherCatV1.15B25,2013-08-18 09:57:00,
2013-08-18 04:58:00,60.9,56.4,30.02,South,176,3.0,7.0,85,0.00,,,0.00,0,WeatherCatV1.15B25,2013-08-18 09:58:00,
2013-08-18 04:59:00,60.9,56.4,30.02,South,176,5.0,7.0,85,0.00,,,0.00,0,WeatherCatV1.15B25,2013-08-18 09:59:00,
2013-08-18 05:00:00,60.9,56.4,30.02,South,176,1.0,5.0,85,0.00,,,0.00,0,WeatherCatV1.15B25,2013-08-18 10:00:00,
2013-08-18 05:02:00,60.9,56.4,30.02,South,176,0.0,3.0,85,0.00,,,0.00,0,WeatherCatV1.15B25,2013-08-18 10:02:00,
2013-08-18 05:03:00,60.8,56.3,30.02,South,176,1.0,1.0,85,0.00,,,0.00,0,WeatherCatV1.15B25,2013-08-18 10:03:00,
2013-08-18 05:04:00,60.8,56.3,30.02,South,176,0.0,1.0,85,0.00,,,0.00,0,WeatherCatV1.15B25,2013-08-18 10:04:00,
2013-08-18 05:05:00,60.8,56.3,30.02,South,176,0.0,1.0,85,0.00,,,0.00,0,WeatherCatV1.15B25,2013-08-18 10:05:00,
2013-08-18 05:08:00,60.7,56.2,30.02,South,177,0.0,5.0,85,0.00,,,0.00,0,WeatherCatV1.15B25,2013-08-18 10:08:00,
2013-08-18 05:09:00,60.7,56.2,30.02,South,175,1.0,5.0,85,0.00,,,0.00,0,WeatherCatV1.15B25,2013-08-18 10:09:00,
2013-08-18 05:10:00,60.7,56.2,30.02,South,173,3.0,5.0,85,0.00,,,0.00,0,WeatherCatV1.15B25,2013-08-18 10:10:00,
2013-08-18 05:13:00,60.6,56.4,30.02,South,173,0.0,4.0,86,0.00,,,0.00,0,WeatherCatV1.15B25,2013-08-18 10:13:00,
2013-08-18 05:14:00,60.5,56.3,30.02,South,173,0.0,4.0,86,0.00,,,0.00,0,WeatherCatV1.15B25,2013-08-18 10:14:00,
2013-08-18 05:15:00,60.5,56.3,30.02,South,173,1.0,4.0,86,0.00,,,0.00,0,WeatherCatV1.15B25,2013-08-18 10:15:00,
2013-08-18 05:18:00,60.4,56.2,30.02,South,173,0.0,1.0,86,0.00,,,0.00,0,WeatherCatV1.15B25,2013-08-18 10:18:00,
2013-08-18 05:19:00,60.4,56.2,30.02,South,173,1.0,1.0,86,0.00,,,0.00,0,WeatherCatV1.15B25,2013-08-18 10:19:00,
2013-08-18 05:20:00,60.3,56.1,30.02,South,173,2.0,4.0,86,0.00,,,0.00,0,WeatherCatV1.15B25,2013-08-18 10:20:00,
2013-08-18 05:24:00,60.2,56.0,30.02,South,172,2.0,5.0,86,0.00,,,0.00,0,WeatherCatV1.15B25,2013-08-18 10:24:00,
2013-08-18 05:25:00,60.1,55.9,30.02,South,172,0.0,5.0,86,0.00,,,0.00,0,WeatherCatV1.15B25,2013-08-18 10:25:00,
2013-08-18 05:29:00,59.9,56.0,30.02,South,172,0.0,2.0,87,0.00,,,0.00,0,WeatherCatV1.15B25,2013-08-18 10:29:00,
2013-08-18 05:30:00,59.9,56.0,30.02,South,172,0.0,0.0,87,0.00,,,0.00,0,WeatherCatV1.15B25,2013-08-18 10:30:00,
2013-08-18 05:31:00,59.9,56.0,30.01,South,172,0.0,0.0,87,0.00,,,0.00,0,WeatherCatV1.15B25,2013-08-18 10:31:00,
2013-08-18 05:34:00,59.8,55.9,30.02,South,172,0.0,2.0,87,0.00,,,0.00,0,WeatherCatV1.15B25,2013-08-18 10:34:00,
2013-08-18 05:35:00,59.7,55.8,30.02,South,172,0.0,0.0,87,0.00,,,0.00,0,WeatherCatV1.15B25,2013-08-18 10:35:00,
2013-08-18 05:36:00,59.7,55.8,30.02,South,172,0.0,2.0,87,0.00,,,0.00,0,WeatherCatV1.15B25,2013-08-18 10:36:00,
2013-08-18 05:39:00,59.6,55.7,30.02,South,172,0.0,2.0,87,0.00,,,0.00,0,WeatherCatV1.15B25,2013-08-18 10:39:00,
2013-08-18 05:40:00,59.6,55.7,30.02,South,172,0.0,2.0,87,0.00,,,0.00,0,WeatherCatV1.15B25,2013-08-18 10:40:00,
2013-08-18 05:41:00,59.5,55.9,30.02,South,172,0.0,0.0,88,0.00,,,0.00,0,WeatherCatV1.15B25,2013-08-18 10:41:00,
2013-08-18 05:44:00,59.5,55.9,30.02,South,172,0.0,0.0,88,0.00,,,0.00,0,WeatherCatV1.15B25,2013-08-18 10:44:00,
2013-08-18 05:45:00,59.5,55.9,30.02,South,172,0.0,2.0,88,0.00,,,0.00,0,WeatherCatV1.15B25,2013-08-18 10:45:00,
2013-08-18 05:46:00,59.5,55.9,30.02,South,172,1.0,2.0,88,0.00,,,0.00,0,WeatherCatV1.15B25,2013-08-18 10:46:00,
2013-08-18 05:50:00,59.4,55.8,30.02,South,172,0.0,2.0,88,0.00,,,0.00,0,WeatherCatV1.15B25,2013-08-18 10:50:00,
2013-08-18 05:51:00,59.4,55.8,30.02,South,172,0.0,0.0,88,0.00,,,0.00,0,WeatherCatV1.15B25,2013-08-18 10:51:00,
2013-08-18 05:55:00,59.4,55.8,30.02,South,172,0.0,5.0,88,0.00,,,0.00,0,WeatherCatV1.15B25,2013-08-18 10:55:00,
2013-08-18 05:56:00,59.4,55.8,30.02,South,172,1.0,5.0,88,0.00,,,0.00,0,WeatherCatV1.15B25,2013-08-18 10:56:00,
2013-08-18 06:00:00,59.5,55.9,30.02,South,172,0.0,5.0,88,0.00,,,0.00,0,WeatherCatV1.15B25,2013-08-18 11:00:00,
2013-08-18 06:01:00,59.5,55.9,30.02,South,172,4.0,4.0,88,0.00,,,0.00,0,WeatherCatV1.15B25,2013-08-18 11:01:00,
2013-08-18 06:05:00,59.5,55.9,30.02,South,172,2.0,2.0,88,0.00,,,0.00,0,WeatherCatV1.15B25,2013-08-18 11:05:00,
2013-08-18 06:06:00,59.5,55.9,30.02,South,172,0.0,2.0,88,0.00,,,0.00,0,WeatherCatV1.15B25,2013-08-18 11:06:00,
2013-08-18 06:10:00,59.7,56.1,30.02,South,172,3.0,6.0,88,0.00,,,0.00,0,WeatherCatV1.15B25,2013-08-18 11:10:00,
2013-08-18 06:11:00,59.8,56.2,30.02,South,172,2.0,6.0,88,0.00,,,0.00,0,WeatherCatV1.15B25,2013-08-18 11:11:00,
2013-08-18 06:15:00,59.8,55.9,30.02,South,172,3.0,3.0,87,0.00,,,0.00,0,WeatherCatV1.15B25,2013-08-18 11:15:00,
2013-08-18 06:16:00,59.8,55.9,30.02,South,172,1.0,3.0,87,0.00,,,0.00,0,WeatherCatV1.15B25,2013-08-18 11:16:00,
2013-08-18 06:17:00,59.8,55.9,30.03,South,172,5.0,5.0,87,0.00,,,0.00,0,WeatherCatV1.15B25,2013-08-18 11:17:00,
2013-08-18 06:20:00,59.9,56.0,30.03,South,176,1.0,3.0,87,0.00,,,0.00,0,WeatherCatV1.15B25,2013-08-18 11:20:00,
2013-08-18 06:21:00,59.9,56.0,30.02,South,176,0.0,4.0,87,0.00,,,0.00,0,WeatherCatV1.15B25,2013-08-18 11:21:00,
2013-08-18 06:22:00,59.9,56.0,30.02,South,176,3.0,5.0,87,0.00,,,0.00,0,WeatherCatV1.15B25,2013-08-18 11:22:00,
2013-08-18 06:25:00,59.9,56.0,30.02,South,176,0.0,5.0,87,0.00,,,0.00,0,WeatherCatV1.15B25,2013-08-18 11:25:00,
2013-08-18 06:26:00,59.9,56.0,30.02,South,176,2.0,5.0,87,0.00,,,0.00,0,WeatherCatV1.15B25,2013-08-18 11:26:00,
2013-08-18 06:27:00,59.9,56.0,30.02,South,176,4.0,5.0,87,0.00,,,0.00,0,WeatherCatV1.15B25,2013-08-18 11:27:00,
2013-08-18 06:31:00,59.9,56.0,30.02,South,176,0.0,4.0,87,0.00,,,0.00,0,WeatherCatV1.15B25,2013-08-18 11:31:00,
2013-08-18 06:32:00,59.9,56.0,30.02,South,175,3.0,7.0,87,0.00,,,0.00,0,WeatherCatV1.15B25,2013-08-18 11:32:00,
2013-08-18 06:36:00,60.0,56.1,30.03,South,175,2.0,6.0,87,0.00,,,0.00,0,WeatherCatV1.15B25,2013-08-18 11:36:00,
2013-08-18 06:37:00,60.0,56.1,30.03,South,169,0.0,7.0,87,0.00,,,0.00,0,WeatherCatV1.15B25,2013-08-18 11:37:00,
2013-08-18 06:41:00,60.0,55.8,30.02,South,169,0.0,5.0,86,0.00,,,0.00,0,WeatherCatV1.15B25,2013-08-18 11:41:00,
2013-08-18 06:42:00,60.0,55.8,30.03,South,169,0.0,3.0,86,0.00,,,0.00,0,WeatherCatV1.15B25,2013-08-18 11:42:00,
2013-08-18 06:46:00,59.9,55.7,30.03,South,169,4.0,6.0,86,0.00,,,0.00,5,WeatherCatV1.15B25,2013-08-18 11:46:00,
2013-08-18 06:47:00,59.9,55.7,30.03,South,169,4.0,7.0,86,0.00,,,0.00,5,WeatherCatV1.15B25,2013-08-18 11:47:00,
2013-08-18 06:48:00,59.9,55.7,30.03,South,170,0.0,7.0,86,0.00,,,0.00,5,WeatherCatV1.15B25,2013-08-18 11:48:00,
2013-08-18 06:51:00,59.8,55.6,30.03,South,172,4.0,7.0,86,0.00,,,0.00,7,WeatherCatV1.15B25,2013-08-18 11:51:00,
2013-08-18 06:52:00,59.8,55.9,30.03,South,172,1.0,7.0,87,0.00,,,0.00,7,WeatherCatV1.15B25,2013-08-18 11:52:00,
2013-08-18 06:53:00,59.8,55.9,30.03,South,173,1.0,7.0,87,0.00,,,0.00,9,WeatherCatV1.15B25,2013-08-18 11:53:00,
2013-08-18 06:57:00,59.7,55.8,30.03,South,172,3.0,6.0,87,0.00,,,0.00,12,WeatherCatV1.15B25,2013-08-18 11:57:00,
2013-08-18 06:58:00,59.7,55.8,30.03,South,173,3.0,4.0,87,0.00,,,0.00,12,WeatherCatV1.15B25,2013-08-18 11:58:00,
2013-08-18 07:02:00,59.7,55.8,30.03,South,170,0.0,5.0,87,0.00,,,0.00,18,WeatherCatV1.15B25,2013-08-18 12:02:00,
2013-08-18 07:03:00,59.7,55.8,30.03,South,171,6.0,6.0,87,0.00,,,0.00,18,WeatherCatV1.15B25,2013-08-18 12:03:00,
2013-08-18 07:07:00,59.6,55.7,30.03,South,171,1.0,3.0,87,0.00,,,0.00,28,WeatherCatV1.15B25,2013-08-18 12:07:00,
2013-08-18 07:08:00,59.6,55.7,30.03,South,171,3.0,3.0,87,0.00,,,0.00,28,WeatherCatV1.15B25,2013-08-18 12:08:00,
2013-08-18 07:12:00,59.7,55.8,30.03,South,180,2.0,5.0,87,0.00,,,0.00,37,WeatherCatV1.15B25,2013-08-18 12:12:00,
2013-08-18 07:13:00,59.7,55.8,30.03,South,181,0.0,3.0,87,0.00,,,0.00,39,WeatherCatV1.15B25,2013-08-18 12:13:00,
2013-08-18 07:14:00,59.7,55.8,30.03,South,181,1.0,3.0,87,0.00,,,0.00,40,WeatherCatV1.15B25,2013-08-18 12:14:00,
2013-08-18 07:17:00,59.7,55.8,30.03,South,181,0.0,5.0,87,0.00,,,0.00,44,WeatherCatV1.15B25,2013-08-18 12:17:00,
2013-08-18 07:18:00,59.7,55.8,30.03,South,181,3.0,5.0,87,0.00,,,0.00,44,WeatherCatV1.15B25,2013-08-18 12:18:00,
2013-08-18 07:19:00,59.7,55.8,30.03,South,180,3.0,4.0,87,0.00,,,0.00,46,WeatherCatV1.15B25,2013-08-18 12:19:00,
2013-08-18 07:22:00,59.7,55.8,30.03,South,181,2.0,3.0,87,0.00,,,0.00,53,WeatherCatV1.15B25,2013-08-18 12:22:00,
2013-08-18 07:23:00,59.7,55.8,30.03,South,182,1.0,3.0,87,0.00,,,0.00,53,WeatherCatV1.15B25,2013-08-18 12:23:00,
2013-08-18 07:24:00,59.7,55.8,30.03,South,182,4.0,4.0,87,0.00,,,0.00,53,WeatherCatV1.15B25,2013-08-18 12:24:00,
2013-08-18 07:27:00,59.7,55.8,30.03,South,182,2.0,5.0,87,0.00,,,0.00,56,WeatherCatV1.15B25,2013-08-18 12:27:00,
2013-08-18 07:28:00,59.8,55.9,30.03,South,182,1.0,5.0,87,0.00,,,0.00,56,WeatherCatV1.15B25,2013-08-18 12:28:00,
2013-08-18 07:29:00,59.8,55.9,30.03,South,182,3.0,5.0,87,0.00,,,0.00,56,WeatherCatV1.15B25,2013-08-18 12:29:00,
2013-08-18 07:33:00,59.9,56.0,30.03,South,181,6.0,6.0,87,0.00,,,0.00,54,WeatherCatV1.15B25,2013-08-18 12:33:00,
2013-08-18 07:34:00,59.9,56.0,30.03,South,181,2.0,6.0,87,0.00,,,0.00,54,WeatherCatV1.15B25,2013-08-18 12:34:00,
2013-08-18 07:38:00,60.0,56.1,30.03,South,187,4.0,11.0,87,0.00,,,0.00,53,WeatherCatV1.15B25,2013-08-18 12:38:00,
2013-08-18 07:39:00,60.0,56.1,30.03,South,190,6.0,11.0,87,0.00,,,0.00,53,WeatherCatV1.15B25,2013-08-18 12:39:00,
2013-08-18 07:43:00,60.2,56.3,30.03,South,187,1.0,7.0,87,0.00,,,0.00,51,WeatherCatV1.15B25,2013-08-18 12:43:00,
2013-08-18 07:44:00,60.2,56.3,30.03,South,187,3.0,6.0,87,0.00,,,0.00,51,WeatherCatV1.15B25,2013-08-18 12:44:00,
2013-08-18 07:48:00,60.3,56.4,30.03,South,191,2.0,6.0,87,0.00,,,0.00,58,WeatherCatV1.15B25,2013-08-18 12:48:00,
2013-08-18 07:49:00,60.3,56.4,30.03,South,191,0.0,3.0,87,0.00,,,0.00,58,WeatherCatV1.15B25,2013-08-18 12:49:00,
2013-08-18 07:53:00,60.4,56.5,30.03,South,183,0.0,3.0,87,0.00,,,0.00,67,WeatherCatV1.15B25,2013-08-18 12:53:00,
2013-08-18 07:54:00,60.5,56.6,30.03,South,183,3.0,3.0,87,0.00,,,0.00,70,WeatherCatV1.15B25,2013-08-18 12:54:00,
2013-08-18 07:58:00,60.6,56.7,30.03,South,183,3.0,3.0,87,0.00,,,0.00,76,WeatherCatV1.15B25,2013-08-18 12:58:00,
2013-08-18 07:59:00,60.7,56.8,30.03,South,183,4.0,4.0,87,0.00,,,0.00,84,WeatherCatV1.15B25,2013-08-18 12:59:00,
2013-08-18 08:03:00,60.9,56.7,30.03,South,186,1.0,5.0,86,0.00,,,0.00,132,WeatherCatV1.15B25,2013-08-18 13:03:00,
2013-08-18 08:04:00,61.0,56.8,30.03,South,186,0.0,4.0,86,0.00,,,0.00,132,WeatherCatV1.15B25,2013-08-18 13:04:00,
2013-08-18 08:05:00,61.0,56.8,30.03,South,188,0.0,6.0,86,0.00,,,0.00,127,WeatherCatV1.15B25,2013-08-18 13:05:00,
2013-08-18 08:08:00,61.3,57.1,30.03,South,187,4.0,4.0,86,0.00,,,0.00,135,WeatherCatV1.15B25,2013-08-18 13:08:00,
2013-08-18 08:09:00,61.4,57.2,30.03,South,187,5.0,5.0,86,0.00,,,0.00,116,WeatherCatV1.15B25,2013-08-18 13:09:00,
2013-08-18 08:10:00,61.4,57.2,30.03,South,188,3.0,9.0,86,0.00,,,0.00,88,WeatherCatV1.15B25,2013-08-18 13:10:00,
2013-08-18 08:14:00,61.6,57.0,30.03,South,169,0.0,9.0,85,0.00,,,0.00,155,WeatherCatV1.15B25,2013-08-18 13:14:00,
2013-08-18 08:15:00,61.7,57.1,30.03,South,169,0.0,9.0,85,0.00,,,0.00,151,WeatherCatV1.15B25,2013-08-18 13:15:00,
2013-08-18 08:19:00,62.2,57.6,30.03,South,176,3.0,10.0,85,0.00,,,0.00,102,WeatherCatV1.15B25,2013-08-18 13:19:00,
2013-08-18 08:20:00,62.3,57.4,30.03,South,178,7.0,10.0,84,0.00,,,0.00,102,WeatherCatV1.15B25,2013-08-18 13:20:00,
2013-08-18 08:21:00,62.3,57.4,30.03,South,180,4.0,10.0,84,0.00,,,0.00,105,WeatherCatV1.15B25,2013-08-18 13:21:00,
2013-08-18 08:24:00,62.4,57.5,30.03,South,178,1.0,7.0,84,0.00,,,0.00,104,WeatherCatV1.15B25,2013-08-18 13:24:00,
2013-08-18 08:25:00,62.4,57.5,30.03,SSE,167,5.0,5.0,84,0.00,,,0.00,98,WeatherCatV1.15B25,2013-08-18 13:25:00,
2013-08-18 08:26:00,62.4,57.5,30.03,South,169,1.0,5.0,84,0.00,,,0.00,98,WeatherCatV1.15B25,2013-08-18 13:26:00,
2013-08-18 08:29:00,62.4,57.2,30.04,South,182,1.0,10.0,83,0.00,,,0.00,107,WeatherCatV1.15B25,2013-08-18 13:29:00,
2013-08-18 08:30:00,62.4,57.2,30.04,South,182,0.0,10.0,83,0.00,,,0.00,111,WeatherCatV1.15B25,2013-08-18 13:30:00,
2013-08-18 08:31:00,62.4,57.2,30.04,SSW,194,2.0,10.0,83,0.00,,,0.00,113,WeatherCatV1.15B25,2013-08-18 13:31:00,
2013-08-18 08:34:00,62.5,57.3,30.04,SSW,192,5.0,9.0,83,0.00,,,0.00,98,WeatherCatV1.15B25,2013-08-18 13:34:00,
2013-08-18 08:35:00,62.5,57.3,30.04,South,176,6.0,9.0,83,0.00,,,0.00,97,WeatherCatV1.15B25,2013-08-18 13:35:00,
2013-08-18 08:36:00,62.5,57.3,30.04,South,178,3.0,7.0,83,0.00,,,0.00,97,WeatherCatV1.15B25,2013-08-18 13:36:00,
2013-08-18 08:39:00,62.5,57.3,30.04,SSW,200,2.0,8.0,83,0.00,,,0.00,98,WeatherCatV1.15B25,2013-08-18 13:39:00,
2013-08-18 08:40:00,62.5,57.3,30.04,South,176,0.0,8.0,83,0.00,,,0.00,104,WeatherCatV1.15B25,2013-08-18 13:40:00,
2013-08-18 08:41:00,62.5,57.3,30.04,South,177,2.0,8.0,83,0.00,,,0.00,109,WeatherCatV1.15B25,2013-08-18 13:41:00,
2013-08-18 08:42:00,62.5,57.3,30.04,SSE,161,5.0,6.0,83,0.00,,,0.00,118,WeatherCatV1.15B25,2013-08-18 13:42:00,
2013-08-18 08:44:00,62.5,57.3,30.04,South,186,0.0,9.0,83,0.00,,,0.00,148,WeatherCatV1.15B25,2013-08-18 13:44:00,
2013-08-18 08:45:00,62.6,57.4,30.04,South,175,7.0,7.0,83,0.00,,,0.00,142,WeatherCatV1.15B25,2013-08-18 13:45:00,
2013-08-18 08:46:00,62.6,57.4,30.04,South,179,0.0,7.0,83,0.00,,,0.00,135,WeatherCatV1.15B25,2013-08-18 13:46:00,
2013-08-18 08:47:00,62.6,57.4,30.04,South,179,0.0,7.0,83,0.00,,,0.00,135,WeatherCatV1.15B25,2013-08-18 13:47:00,
2013-08-18 08:50:00,62.7,57.5,30.04,SSE,150,0.0,9.0,83,0.00,,,0.00,137,WeatherCatV1.15B25,2013-08-18 13:50:00,
2013-08-18 08:52:00,62.8,57.9,30.04,SSE,155,1.0,5.0,84,0.00,,,0.00,142,WeatherCatV1.15B25,2013-08-18 13:52:00,
2013-08-18 08:55:00,62.9,58.0,30.04,SSE,157,2.0,4.0,84,0.00,,,0.00,151,WeatherCatV1.15B25,2013-08-18 13:55:00,
2013-08-18 08:57:00,63.0,57.8,30.04,South,178,5.0,5.0,83,0.00,,,0.00,156,WeatherCatV1.15B25,2013-08-18 13:57:00,
2013-08-18 08:58:00,63.0,57.8,30.04,South,180,3.0,7.0,83,0.00,,,0.00,162,WeatherCatV1.15B25,2013-08-18 13:58:00,
2013-08-18 09:01:00,63.0,57.8,30.04,SSW,205,4.0,9.0,83,0.00,,,0.00,185,WeatherCatV1.15B25,2013-08-18 14:01:00,
2013-08-18 09:02:00,63.1,57.8,30.04,South,183,2.0,7.0,83,0.00,,,0.00,193,WeatherCatV1.15B25,2013-08-18 14:02:00,
2013-08-18 09:03:00,63.1,57.8,30.04,South,179,3.0,7.0,83,0.00,,,0.00,202,WeatherCatV1.15B25,2013-08-18 14:03:00,
2013-08-18 09:06:00,63.3,58.0,30.04,South,180,1.0,6.0,83,0.00,,,0.00,197,WeatherCatV1.15B25,2013-08-18 14:06:00,
2013-08-18 09:07:00,63.3,58.0,30.04,SSE,150,6.0,11.0,83,0.00,,,0.00,183,WeatherCatV1.15B25,2013-08-18 14:07:00,
2013-08-18 09:08:00,63.4,58.1,30.04,South,177,2.0,11.0,83,0.00,,,0.00,183,WeatherCatV1.15B25,2013-08-18 14:08:00,
2013-08-18 09:11:00,63.5,58.2,30.04,SSW,200,4.0,6.0,83,0.00,,,0.00,185,WeatherCatV1.15B25,2013-08-18 14:11:00,
2013-08-18 09:12:00,63.5,58.2,30.04,South,185,12.0,12.0,83,0.00,,,0.00,183,WeatherCatV1.15B25,2013-08-18 14:12:00,
2013-08-18 09:13:00,63.5,58.2,30.04,SSE,165,1.0,12.0,83,0.00,,,0.00,183,WeatherCatV1.15B25,2013-08-18 14:13:00,
2013-08-18 09:16:00,63.6,58.3,30.04,SSW,202,0.0,6.0,83,0.00,,,0.00,181,WeatherCatV1.15B25,2013-08-18 14:16:00,
2013-08-18 09:17:00,63.7,58.4,30.04,SSW,202,0.0,2.0,83,0.00,,,0.00,179,WeatherCatV1.15B25,2013-08-18 14:17:00,
2013-08-18 09:18:00,63.8,58.5,30.04,South,184,5.0,6.0,83,0.00,,,0.00,174,WeatherCatV1.15B25,2013-08-18 14:18:00,
2013-08-18 09:21:00,64.0,58.7,30.04,South,186,3.0,3.0,83,0.00,,,0.00,169,WeatherCatV1.15B25,2013-08-18 14:21:00,
2013-08-18 09:22:00,64.1,58.8,30.04,South,175,2.0,5.0,83,0.00,,,0.00,171,WeatherCatV1.15B25,2013-08-18 14:22:00,
2013-08-18 09:23:00,64.1,58.8,30.04,South,175,3.0,5.0,83,0.00,,,0.00,178,WeatherCatV1.15B25,2013-08-18 14:23:00,
2013-08-18 09:24:00,64.1,58.5,30.04,South,178,0.0,5.0,82,0.00,,,0.00,178,WeatherCatV1.15B25,2013-08-18 14:24:00,
2013-08-18 09:27:00,64.3,58.7,30.04,South,180,5.0,6.0,82,0.00,,,0.00,221,WeatherCatV1.15B25,2013-08-18 14:27:00,
2013-08-18 09:28:00,64.3,58.7,30.04,South,180,5.0,6.0,82,0.00,,,0.00,221,WeatherCatV1.15B25,2013-08-18 14:28:00,
2013-08-18 09:29:00,64.4,58.8,30.04,South,180,0.0,4.0,82,0.00,,,0.00,390,WeatherCatV1.15B25,2013-08-18 14:29:00,
2013-08-18 09:32:00,64.7,59.1,30.04,South,179,2.0,6.0,82,0.00,,,0.00,262,WeatherCatV1.15B25,2013-08-18 14:32:00,
2013-08-18 09:33:00,64.9,59.3,30.04,SSW,193,6.0,7.0,82,0.00,,,0.00,281,WeatherCatV1.15B25,2013-08-18 14:33:00,
2013-08-18 09:34:00,64.9,59.3,30.04,SSW,192,2.0,7.0,82,0.00,,,0.00,281,WeatherCatV1.15B25,2013-08-18 14:34:00,
2013-08-18 09:37:00,65.2,59.2,30.04,SE,138,1.0,9.0,81,0.00,,,0.00,501,WeatherCatV1.15B25,2013-08-18 14:37:00,
2013-08-18 09:38:00,65.4,59.4,30.04,SSW,200,7.0,10.0,81,0.00,,,0.00,501,WeatherCatV1.15B25,2013-08-18 14:38:00,
2013-08-18 09:39:00,65.4,59.4,30.04,SSW,200,6.0,10.0,81,0.00,,,0.00,501,WeatherCatV1.15B25,2013-08-18 14:39:00,
2013-08-18 09:42:00,65.6,59.3,30.04,South,187,4.0,11.0,80,0.00,,,0.00,253,WeatherCatV1.15B25,2013-08-18 14:42:00,
2013-08-18 09:44:00,65.7,59.4,30.04,South,186,0.0,2.0,80,0.00,,,0.00,255,WeatherCatV1.15B25,2013-08-18 14:44:00,
2013-08-18 09:47:00,65.9,59.5,30.04,South,175,0.0,7.0,80,0.00,,,0.00,329,WeatherCatV1.15B25,2013-08-18 14:47:00,
2013-08-18 09:49:00,66.1,59.7,30.04,South,175,0.0,3.0,80,0.00,,,0.00,387,WeatherCatV1.15B25,2013-08-18 14:49:00,
2013-08-18 09:53:00,66.6,60.6,30.04,SSE,148,0.0,4.0,81,0.00,,,0.00,320,WeatherCatV1.15B25,2013-08-18 14:53:00,
2013-08-18 09:54:00,66.7,60.3,30.04,SSE,148,3.0,3.0,80,0.00,,,0.00,320,WeatherCatV1.15B25,2013-08-18 14:54:00,
2013-08-18 09:58:00,67.0,60.3,30.04,SSE,149,4.0,12.0,79,0.00,,,0.00,279,WeatherCatV1.15B25,2013-08-18 14:58:00,
2013-08-18 09:59:00,67.1,60.4,30.04,South,171,4.0,12.0,79,0.00,,,0.00,279,WeatherCatV1.15B25,2013-08-18 14:59:00,
2013-08-18 10:03:00,67.3,60.2,30.04,SSW,198,7.0,9.0,78,0.00,,,0.00,302,WeatherCatV1.15B25,2013-08-18 15:03:00,
2013-08-18 10:04:00,67.3,60.2,30.04,SE,140,5.0,9.0,78,0.00,,,0.00,302,WeatherCatV1.15B25,2013-08-18 15:04:00,
2013-08-18 10:05:00,67.4,60.3,30.04,SSE,150,4.0,9.0,78,0.00,,,0.00,279,WeatherCatV1.15B25,2013-08-18 15:05:00,
2013-08-18 10:09:00,67.7,60.6,30.04,SSE,165,6.0,13.0,78,0.00,,,0.00,540,WeatherCatV1.15B25,2013-08-18 15:09:00,
2013-08-18 10:10:00,67.7,60.2,30.04,South,179,2.0,10.0,77,0.00,,,0.00,540,WeatherCatV1.15B25,2013-08-18 15:10:00,
2013-08-18 10:14:00,67.9,60.0,30.03,SSE,167,7.0,10.0,76,0.00,,,0.00,352,WeatherCatV1.15B25,2013-08-18 15:14:00,
2013-08-18 10:15:00,68.0,60.1,30.03,South,171,3.0,10.0,76,0.00,,,0.00,352,WeatherCatV1.15B25,2013-08-18 15:15:00,
2013-08-18 10:19:00,68.5,60.6,30.03,SSW,192,3.0,10.0,76,0.00,,,0.00,348,WeatherCatV1.15B25,2013-08-18 15:19:00,
2013-08-18 10:20:00,68.5,60.3,30.04,SSW,210,9.0,10.0,75,0.00,,,0.00,348,WeatherCatV1.15B25,2013-08-18 15:20:00,
2013-08-18 10:21:00,68.6,60.3,30.04,SSW,213,10.0,11.0,75,0.00,,,0.00,348,WeatherCatV1.15B25,2013-08-18 15:21:00,
2013-08-18 10:24:00,68.9,61.0,30.03,SSE,156,0.0,7.0,76,0.00,,,0.00,664,WeatherCatV1.15B25,2013-08-18 15:24:00,
2013-08-18 10:25:00,69.0,61.1,30.03,SSE,156,0.0,7.0,76,0.00,,,0.00,652,WeatherCatV1.15B25,2013-08-18 15:25:00,
2013-08-18 10:26:00,69.3,61.8,30.03,SSE,156,0.0,4.0,77,0.00,,,0.00,652,WeatherCatV1.15B25,2013-08-18 15:26:00,
2013-08-18 10:30:00,69.7,61.4,30.03,SE,144,4.0,7.0,75,0.00,,,0.00,650,WeatherCatV1.15B25,2013-08-18 15:30:00,
2013-08-18 10:31:00,69.8,61.5,30.03,South,179,3.0,7.0,75,0.00,,,0.00,650,WeatherCatV1.15B25,2013-08-18 15:31:00,
2013-08-18 10:35:00,70.3,62.0,30.03,SSW,192,4.0,4.0,75,0.00,,,0.00,626,WeatherCatV1.15B25,2013-08-18 15:35:00,
2013-08-18 10:36:00,70.4,61.7,30.03,SSE,161,1.0,12.0,74,0.00,,,0.00,643,WeatherCatV1.15B25,2013-08-18 15:36:00,
2013-08-18 10:40:00,70.7,61.2,30.03,ESE,110,3.0,16.0,72,0.00,,,0.00,700,WeatherCatV1.15B25,2013-08-18 15:40:00,
2013-08-18 10:41:00,70.7,61.6,30.03,South,180,5.0,16.0,73,0.00,,,0.00,729,WeatherCatV1.15B25,2013-08-18 15:41:00,
2013-08-18 10:45:00,71.0,61.1,30.03,SE,145,6.0,14.0,71,0.00,,,0.00,717,WeatherCatV1.15B25,2013-08-18 15:45:00,
2013-08-18 10:46:00,70.9,61.0,30.03,SSW,212,8.0,14.0,71,0.00,,,0.00,717,WeatherCatV1.15B25,2013-08-18 15:46:00,
2013-08-18 10:47:00,70.8,60.9,30.03,South,183,10.0,14.0,71,0.00,,,0.00,717,WeatherCatV1.15B25,2013-08-18 15:47:00,
2013-08-18 10:50:00,71.1,61.6,30.03,South,190,6.0,9.0,72,0.00,,,0.00,773,WeatherCatV1.15B25,2013-08-18 15:50:00,
2013-08-18 10:51:00,71.1,61.6,30.03,South,184,4.0,9.0,72,0.00,,,0.00,773,WeatherCatV1.15B25,2013-08-18 15:51:00,
2013-08-18 10:52:00,71.2,61.7,30.03,SE,136,1.0,9.0,72,0.00,,,0.00,522,WeatherCatV1.15B25,2013-08-18 15:52:00,
2013-08-18 10:55:00,71.7,61.8,30.03,SSE,157,3.0,10.0,71,0.00,,,0.00,761,WeatherCatV1.15B25,2013-08-18 15:55:00,
2013-08-18 10:56:00,71.7,61.8,30.03,SSE,160,11.0,11.0,71,0.00,,,0.00,325,WeatherCatV1.15B25,2013-08-18 15:56:00,
2013-08-18 10:57:00,71.6,61.3,30.03,SSE,167,3.0,11.0,70,0.00,,,0.00,330,WeatherCatV1.15B25,2013-08-18 15:57:00,
2013-08-18 11:00:00,70.9,61.0,30.03,SSW,204,11.0,11.0,71,0.00,,,0.00,274,WeatherCatV1.15B25,2013-08-18 16:00:00,
2013-08-18 11:01:00,70.8,60.9,30.03,SSE,166,1.0,11.0,71,0.00,,,0.00,274,WeatherCatV1.15B25,2013-08-18 16:01:00,
2013-08-18 11:02:00,70.8,60.9,30.03,SE,144,1.0,11.0,71,0.00,,,0.00,309,WeatherCatV1.15B25,2013-08-18 16:02:00,
2013-08-18 11:05:00,70.7,61.6,30.03,South,180,7.0,7.0,73,0.00,,,0.00,297,WeatherCatV1.15B25,2013-08-18 16:05:00,
2013-08-18 11:06:00,70.6,61.1,30.03,South,178,4.0,12.0,72,0.00,,,0.00,315,WeatherCatV1.15B25,2013-08-18 16:06:00,
2013-08-18 11:07:00,70.6,61.1,30.03,South,178,2.0,12.0,72,0.00,,,0.00,315,WeatherCatV1.15B25,2013-08-18 16:07:00,
2013-08-18 11:10:00,70.6,61.1,30.03,ESE,123,9.0,13.0,72,0.00,,,0.00,311,WeatherCatV1.15B25,2013-08-18 16:10:00,
2013-08-18 11:12:00,70.5,60.6,30.03,South,173,3.0,12.0,71,0.00,,,0.00,320,WeatherCatV1.15B25,2013-08-18 16:12:00,
2013-08-18 11:15:00,70.3,60.8,30.03,SSW,211,2.0,16.0,72,0.00,,,0.00,346,WeatherCatV1.15B25,2013-08-18 16:15:00,
2013-08-18 11:17:00,70.3,60.8,30.03,SSE,166,4.0,16.0,72,0.00,,,0.00,387,WeatherCatV1.15B25,2013-08-18 16:17:00,
2013-08-18 11:21:00,70.5,61.4,30.03,SSE,152,3.0,7.0,73,0.00,,,0.00,392,WeatherCatV1.15B25,2013-08-18 16:21:00,
2013-08-18 11:22:00,70.6,61.5,30.03,SSE,164,4.0,11.0,73,0.00,,,0.00,738,WeatherCatV1.15B25,2013-08-18 16:22:00,
2013-08-18 11:23:00,70.7,61.2,30.03,SW,218,11.0,11.0,72,0.00,,,0.00,645,WeatherCatV1.15B25,2013-08-18 16:23:00,
2013-08-18 11:26:00,71.3,61.8,30.03,SE,142,10.0,12.0,72,0.00,,,0.00,784,WeatherCatV1.15B25,2013-08-18 16:26:00,
2013-08-18 11:27:00,71.3,61.8,30.03,South,189,3.0,11.0,72,0.00,,,0.00,816,WeatherCatV1.15B25,2013-08-18 16:27:00,
2013-08-18 11:28:00,71.5,62.0,30.03,SW,221,3.0,11.0,72,0.00,,,0.00,838,WeatherCatV1.15B25,2013-08-18 16:28:00,
2013-08-18 11:31:00,72.1,62.6,30.03,South,191,9.0,9.0,72,0.00,,,0.00,842,WeatherCatV1.15B25,2013-08-18 16:31:00,
2013-08-18 11:32:00,72.4,62.5,30.03,SE,142,6.0,11.0,71,0.00,,,0.00,842,WeatherCatV1.15B25,2013-08-18 16:32:00,
2013-08-18 11:33:00,72.5,62.5,30.03,South,180,6.0,11.0,71,0.00,,,0.00,886,WeatherCatV1.15B25,2013-08-18 16:33:00,
2013-08-18 11:36:00,72.8,62.4,30.03,SE,137,4.0,10.0,70,0.00,,,0.00,821,WeatherCatV1.15B25,2013-08-18 16:36:00,
2013-08-18 11:37:00,72.7,62.3,30.03,South,188,5.0,13.0,70,0.00,,,0.00,443,WeatherCatV1.15B25,2013-08-18 16:37:00,
2013-08-18 11:38:00,72.6,62.2,30.03,SSW,196,9.0,13.0,70,0.00,,,0.00,443,WeatherCatV1.15B25,2013-08-18 16:38:00,
2013-08-18 11:41:00,72.5,62.5,30.03,SSE,155,6.0,6.0,71,0.00,,,0.00,826,WeatherCatV1.15B25,2013-08-18 16:41:00,
2013-08-18 11:42:00,72.6,62.6,30.03,SSE,149,2.0,10.0,71,0.00,,,0.00,826,WeatherCatV1.15B25,2013-08-18 16:42:00,
2013-08-18 11:43:00,72.7,62.7,30.03,SE,134,4.0,10.0,71,0.00,,,0.00,826,WeatherCatV1.15B25,2013-08-18 16:43:00,
2013-08-18 11:47:00,73.1,62.7,30.02,ESE,123,2.0,7.0,70,0.00,,,0.00,831,WeatherCatV1.15B25,2013-08-18 16:47:00,
2013-08-18 11:48:00,73.3,62.9,30.02,SE,137,3.0,9.0,70,0.00,,,0.00,812,WeatherCatV1.15B25,2013-08-18 16:48:00,
2013-08-18 11:49:00,73.3,62.9,30.02,SE,138,0.0,9.0,70,0.00,,,0.00,803,WeatherCatV1.15B25,2013-08-18 16:49:00,
2013-08-18 11:52:00,73.9,63.9,30.02,SE,146,4.0,11.0,71,0.00,,,0.00,821,WeatherCatV1.15B25,2013-08-18 16:52:00,
2013-08-18 11:53:00,74.0,63.6,30.02,SSW,203,10.0,11.0,70,0.00,,,0.00,809,WeatherCatV1.15B25,2013-08-18 16:53:00,
2013-08-18 11:54:00,74.0,63.2,30.02,South,172,5.0,11.0,69,0.00,,,0.00,809,WeatherCatV1.15B25,2013-08-18 16:54:00,
2013-08-18 11:57:00,74.0,63.6,30.02,SSE,158,7.0,7.0,70,0.00,,,0.00,807,WeatherCatV1.15B25,2013-08-18 16:57:00,
2013-08-18 11:58:00,74.0,63.2,30.02,SSE,148,5.0,10.0,69,0.00,,,0.00,796,WeatherCatV1.15B25,2013-08-18 16:58:00,
2013-08-18 11:59:00,74.0,63.6,30.01,SE,138,9.0,10.0,70,0.00,,,0.00,796,WeatherCatV1.15B25,2013-08-18 16:59:00,
2013-08-18 12:02:00,74.5,63.6,30.02,SSW,192,3.0,6.0,69,0.00,,,0.00,791,WeatherCatV1.15B25,2013-08-18 17:02:00,
2013-08-18 12:03:00,74.6,63.7,30.02,South,173,0.0,6.0,69,0.00,,,0.00,830,WeatherCatV1.15B25,2013-08-18 17:03:00,
2013-08-18 12:04:00,74.7,63.4,30.02,SE,141,5.0,10.0,68,0.00,,,0.00,830,WeatherCatV1.15B25,2013-08-18 17:04:00,
2013-08-18 12:07:00,74.7,63.0,30.02,SW,222,4.0,11.0,67,0.00,,,0.00,830,WeatherCatV1.15B25,2013-08-18 17:07:00,
2013-08-18 12:08:00,74.6,62.9,30.02,SSW,201,7.0,11.0,67,0.00,,,0.00,854,WeatherCatV1.15B25,2013-08-18 17:08:00,
2013-08-18 12:09:00,74.5,62.8,30.02,SSW,194,13.0,15.0,67,0.00,,,0.00,849,WeatherCatV1.15B25,2013-08-18 17:09:00,
2013-08-18 12:12:00,73.9,62.7,30.02,SSE,165,4.0,13.0,68,0.00,,,0.00,851,WeatherCatV1.15B25,2013-08-18 17:12:00,
2013-08-18 12:13:00,73.8,62.6,30.01,SSW,207,11.0,13.0,68,0.00,,,0.00,851,WeatherCatV1.15B25,2013-08-18 17:13:00,
2013-08-18 12:14:00,73.7,62.5,30.02,SSW,198,10.0,14.0,68,0.00,,,0.00,867,WeatherCatV1.15B25,2013-08-18 17:14:00,
2013-08-18 12:18:00,74.3,64.3,30.01,SSE,167,5.0,12.0,71,0.00,,,0.00,882,WeatherCatV1.15B25,2013-08-18 17:18:00,
2013-08-18 12:19:00,74.4,63.5,30.01,South,182,2.0,12.0,69,0.00,,,0.00,882,WeatherCatV1.15B25,2013-08-18 17:19:00,
2013-08-18 12:23:00,73.9,63.1,30.01,SE,146,10.0,14.0,69,0.00,,,0.00,789,WeatherCatV1.15B25,2013-08-18 17:23:00,
2013-08-18 12:24:00,73.9,63.1,30.01,SE,142,4.0,14.0,69,0.00,,,0.00,814,WeatherCatV1.15B25,2013-08-18 17:24:00,
2013-08-18 12:25:00,73.9,63.1,30.01,SSE,153,11.0,11.0,69,0.00,,,0.00,814,WeatherCatV1.15B25,2013-08-18 17:25:00,
2013-08-18 12:28:00,74.2,63.4,30.01,ESE,116,5.0,11.0,69,0.00,,,0.00,868,WeatherCatV1.15B25,2013-08-18 17:28:00,
2013-08-18 12:29:00,74.3,63.5,30.01,ESE,113,5.0,11.0,69,0.00,,,0.00,868,WeatherCatV1.15B25,2013-08-18 17:29:00,
2013-08-18 12:30:00,74.4,63.1,30.01,SSW,205,11.0,12.0,68,0.00,,,0.00,877,WeatherCatV1.15B25,2013-08-18 17:30:00,
2013-08-18 12:33:00,74.9,64.4,30.01,South,186,3.0,12.0,70,0.00,,,0.00,819,WeatherCatV1.15B25,2013-08-18 17:33:00,
2013-08-18 12:34:00,75.0,64.1,30.01,SSW,199,5.0,15.0,69,0.00,,,0.00,819,WeatherCatV1.15B25,2013-08-18 17:34:00,
2013-08-18 12:35:00,75.0,63.3,30.01,SSW,192,3.0,15.0,67,0.00,,,0.00,819,WeatherCatV1.15B25,2013-08-18 17:35:00,
2013-08-18 12:39:00,74.8,62.7,30.01,East,100,3.0,13.0,66,0.00,,,0.00,496,WeatherCatV1.15B25,2013-08-18 17:39:00,
2013-08-18 12:40:00,74.6,63.3,30.01,ESE,106,4.0,16.0,68,0.00,,,0.00,496,WeatherCatV1.15B25,2013-08-18 17:40:00,
2013-08-18 12:41:00,74.6,62.9,30.01,ESE,119,9.0,16.0,67,0.00,,,0.00,476,WeatherCatV1.15B25,2013-08-18 17:41:00,
2013-08-18 12:44:00,74.3,63.0,30.01,SSW,199,2.0,16.0,68,0.00,,,0.00,512,WeatherCatV1.15B25,2013-08-18 17:44:00,
2013-08-18 12:45:00,74.2,62.5,30.01,SSE,156,6.0,16.0,67,0.00,,,0.00,468,WeatherCatV1.15B25,2013-08-18 17:45:00,
2013-08-18 12:46:00,74.1,62.4,30.01,South,183,7.0,13.0,67,0.00,,,0.00,515,WeatherCatV1.15B25,2013-08-18 17:46:00,
2013-08-18 12:49:00,74.4,63.5,30.01,SW,214,6.0,13.0,69,0.00,,,0.00,1071,WeatherCatV1.15B25,2013-08-18 17:49:00,
2013-08-18 12:50:00,74.6,63.3,30.01,SSW,203,10.0,13.0,68,0.00,,,0.00,1071,WeatherCatV1.15B25,2013-08-18 17:50:00,
2013-08-18 12:51:00,74.8,63.1,30.01,South,180,13.0,13.0,67,0.00,,,0.00,1071,WeatherCatV1.15B25,2013-08-18 17:51:00,
2013-08-18 12:54:00,74.4,62.3,30.01,South,183,12.0,15.0,66,0.00,,,0.00,512,WeatherCatV1.15B25,2013-08-18 17:54:00,
2013-08-18 12:55:00,74.3,62.2,30.01,SW,227,9.0,18.0,66,0.00,,,0.00,512,WeatherCatV1.15B25,2013-08-18 17:55:00,
2013-08-18 12:56:00,74.2,62.5,30.01,SE,134,5.0,18.0,67,0.00,,,0.00,480,WeatherCatV1.15B25,2013-08-18 17:56:00,
2013-08-18 12:59:00,73.9,62.2,30.01,South,178,6.0,18.0,67,0.00,,,0.00,476,WeatherCatV1.15B25,2013-08-18 17:59:00,
2013-08-18 13:00:00,73.9,62.2,30.01,SW,217,5.0,18.0,67,0.00,,,0.00,476,WeatherCatV1.15B25,2013-08-18 18:00:00,
2013-08-18 13:01:00,73.9,62.7,30.01,South,181,13.0,18.0,68,0.00,,,0.00,476,WeatherCatV1.15B25,2013-08-18 18:01:00,
2013-08-18 13:02:00,73.9,62.7,30.01,SW,222,10.0,13.0,68,0.00,,,0.00,990,WeatherCatV1.15B25,2013-08-18 18:02:00,
2013-08-18 13:04:00,74.6,63.7,30.01,SW,217,6.0,12.0,69,0.00,,,0.00,969,WeatherCatV1.15B25,2013-08-18 18:04:00,
2013-08-18 13:05:00,74.8,63.9,30.00,SSW,192,9.0,9.0,69,0.00,,,0.00,949,WeatherCatV1.15B25,2013-08-18 18:05:00,
2013-08-18 13:06:00,74.9,63.6,30.00,SSE,147,9.0,16.0,68,0.00,,,0.00,949,WeatherCatV1.15B25,2013-08-18 18:06:00,
2013-08-18 13:07:00,75.0,63.7,30.00,SSW,200,2.0,16.0,68,0.00,,,0.00,902,WeatherCatV1.15B25,2013-08-18 18:07:00,
2013-08-18 13:09:00,75.1,63.4,30.00,South,170,6.0,10.0,67,0.00,,,0.00,357,WeatherCatV1.15B25,2013-08-18 18:09:00,
2013-08-18 13:10:00,75.0,63.3,30.00,SSE,149,3.0,10.0,67,0.00,,,0.00,446,WeatherCatV1.15B25,2013-08-18 18:10:00,
2013-08-18 13:11:00,74.9,63.2,30.00,SSW,199,11.0,11.0,67,0.00,,,0.00,513,WeatherCatV1.15B25,2013-08-18 18:11:00,
2013-08-18 13:12:00,74.8,63.1,30.00,SSE,157,4.0,11.0,67,0.00,,,0.00,513,WeatherCatV1.15B25,2013-08-18 18:12:00,
2013-08-18 13:14:00,75.0,63.3,30.00,South,170,9.0,11.0,67,0.00,,,0.00,930,WeatherCatV1.15B25,2013-08-18 18:14:00,
2013-08-18 13:15:00,75.1,63.8,30.00,South,176,14.0,16.0,68,0.00,,,0.00,930,WeatherCatV1.15B25,2013-08-18 18:15:00,
2013-08-18 13:16:00,75.1,63.8,30.00,East,94,10.0,16.0,68,0.00,,,0.00,483,WeatherCatV1.15B25,2013-08-18 18:16:00,
2013-08-18 13:17:00,75.1,63.8,30.00,South,180,11.0,16.0,68,0.00,,,0.00,483,WeatherCatV1.15B25,2013-08-18 18:17:00,
2013-08-18 13:19:00,75.2,63.9,30.00,SSW,203,7.0,13.0,68,0.00,,,0.00,483,WeatherCatV1.15B25,2013-08-18 18:19:00,
2013-08-18 13:20:00,75.2,63.9,30.00,SSW,205,7.0,13.0,68,0.00,,,0.00,745,WeatherCatV1.15B25,2013-08-18 18:20:00,
2013-08-18 13:21:00,75.3,64.0,30.00,SSW,192,2.0,7.0,68,0.00,,,0.00,745,WeatherCatV1.15B25,2013-08-18 18:21:00,
2013-08-18 13:22:00,75.5,64.2,30.00,ESE,117,1.0,9.0,68,0.00,,,0.00,1023,WeatherCatV1.15B25,2013-08-18 18:22:00,
2013-08-18 13:24:00,76.1,64.8,30.00,SSE,148,2.0,5.0,68,0.00,,,0.00,1023,WeatherCatV1.15B25,2013-08-18 18:24:00,
2013-08-18 13:25:00,76.3,64.9,30.00,SSW,213,3.0,10.0,68,0.00,,,0.00,946,WeatherCatV1.15B25,2013-08-18 18:25:00,
2013-08-18 13:26:00,76.4,64.2,30.00,SSW,198,9.0,12.0,66,0.00,,,0.00,946,WeatherCatV1.15B25,2013-08-18 18:26:00,
2013-08-18 13:27:00,76.3,64.5,30.00,South,189,1.0,12.0,67,0.00,,,0.00,946,WeatherCatV1.15B25,2013-08-18 18:27:00,
2013-08-18 13:29:00,76.3,64.5,30.00,South,170,2.0,14.0,67,0.00,,,0.00,946,WeatherCatV1.15B25,2013-08-18 18:29:00,
2013-08-18 13:31:00,76.3,64.9,30.00,SSE,155,7.0,11.0,68,0.00,,,0.00,946,WeatherCatV1.15B25,2013-08-18 18:31:00,
2013-08-18 13:32:00,75.9,63.3,30.00,SE,146,4.0,16.0,65,0.00,,,0.00,946,WeatherCatV1.15B25,2013-08-18 18:32:00,
2013-08-18 13:34:00,75.9,64.1,30.00,SSE,152,6.0,11.0,67,0.00,,,0.00,759,WeatherCatV1.15B25,2013-08-18 18:34:00,
2013-08-18 13:36:00,76.0,64.2,30.00,SSW,211,0.0,11.0,67,0.00,,,0.00,956,WeatherCatV1.15B25,2013-08-18 18:36:00,
2013-08-18 13:37:00,76.2,64.0,30.00,East,87,5.0,15.0,66,0.00,,,0.00,1020,WeatherCatV1.15B25,2013-08-18 18:37:00,
2013-08-18 13:40:00,76.4,64.6,30.00,SE,132,7.0,9.0,67,0.00,,,0.00,1118,WeatherCatV1.15B25,2013-08-18 18:40:00,
2013-08-18 13:41:00,76.7,64.5,29.99,ESE,104,5.0,11.0,66,0.00,,,0.00,1039,WeatherCatV1.15B25,2013-08-18 18:41:00,
2013-08-18 13:42:00,76.7,64.5,30.00,ESE,112,3.0,11.0,66,0.00,,,0.00,995,WeatherCatV1.15B25,2013-08-18 18:42:00,
2013-08-18 13:45:00,76.9,64.7,30.00,South,170,7.0,17.0,66,0.00,,,0.00,958,WeatherCatV1.15B25,2013-08-18 18:45:00,
2013-08-18 13:46:00,77.1,64.4,29.99,SE,138,2.0,10.0,65,0.00,,,0.00,896,WeatherCatV1.15B25,2013-08-18 18:46:00,
2013-08-18 13:47:00,77.1,64.4,29.99,SE,138,2.0,10.0,65,0.00,,,0.00,896,WeatherCatV1.15B25,2013-08-18 18:47:00,
2013-08-18 13:48:00,77.2,64.5,29.99,South,182,2.0,13.0,65,0.00,,,0.00,896,WeatherCatV1.15B25,2013-08-18 18:48:00,
2013-08-18 13:50:00,77.2,64.9,29.99,East,95,7.0,13.0,66,0.00,,,0.00,872,WeatherCatV1.15B25,2013-08-18 18:50:00,
2013-08-18 13:52:00,77.1,64.4,29.99,ESE,123,3.0,6.0,65,0.00,,,0.00,895,WeatherCatV1.15B25,2013-08-18 18:52:00,
2013-08-18 13:53:00,77.0,64.3,29.99,South,181,6.0,13.0,65,0.00,,,0.00,846,WeatherCatV1.15B25,2013-08-18 18:53:00,
2013-08-18 13:55:00,76.9,64.7,29.99,South,176,5.0,11.0,66,0.00,,,0.00,863,WeatherCatV1.15B25,2013-08-18 18:55:00,
2013-08-18 13:57:00,76.8,64.6,29.99,SE,141,4.0,10.0,66,0.00,,,0.00,817,WeatherCatV1.15B25,2013-08-18 18:57:00,
2013-08-18 13:58:00,76.8,64.6,29.99,South,179,2.0,6.0,66,0.00,,,0.00,886,WeatherCatV1.15B25,2013-08-18 18:58:00,
2013-08-18 14:00:00,77.3,65.0,29.99,ESE,122,3.0,12.0,66,0.00,,,0.00,846,WeatherCatV1.15B25,2013-08-18 19:00:00,
2013-08-18 14:02:00,77.6,65.8,29.99,SE,128,1.0,4.0,67,0.00,,,0.00,860,WeatherCatV1.15B25,2013-08-18 19:02:00,
2013-08-18 14:03:00,77.8,65.9,29.99,South,181,9.0,12.0,67,0.00,,,0.00,909,WeatherCatV1.15B25,2013-08-18 19:03:00,
2013-08-18 14:05:00,78.1,65.8,29.99,SSE,164,3.0,16.0,66,0.00,,,0.00,940,WeatherCatV1.15B25,2013-08-18 19:05:00,
2013-08-18 14:07:00,78.0,65.3,29.99,South,187,2.0,14.0,65,0.00,,,0.00,947,WeatherCatV1.15B25,2013-08-18 19:07:00,
2013-08-18 14:08:00,78.0,65.7,29.99,SE,144,6.0,6.0,66,0.00,,,0.00,350,WeatherCatV1.15B25,2013-08-18 19:08:00,
2013-08-18 14:09:00,77.8,64.6,29.99,South,190,6.0,11.0,64,0.00,,,0.00,383,WeatherCatV1.15B25,2013-08-18 19:09:00,
2013-08-18 14:10:00,77.5,64.8,29.99,SSE,158,1.0,6.0,65,0.00,,,0.00,383,WeatherCatV1.15B25,2013-08-18 19:10:00,
2013-08-18 14:12:00,77.5,65.7,29.99,South,189,5.0,7.0,67,0.00,,,0.00,1079,WeatherCatV1.15B25,2013-08-18 19:12:00,
2013-08-18 14:13:00,77.6,65.3,29.99,ESE,114,4.0,7.0,66,0.00,,,0.00,1079,WeatherCatV1.15B25,2013-08-18 19:13:00,
2013-08-18 14:14:00,77.7,65.4,29.99,ESE,113,3.0,6.0,66,0.00,,,0.00,1079,WeatherCatV1.15B25,2013-08-18 19:14:00,
2013-08-18 14:16:00,77.8,65.1,29.99,SSW,194,4.0,11.0,65,0.00,,,0.00,561,WeatherCatV1.15B25,2013-08-18 19:16:00,
2013-08-18 14:17:00,77.7,65.4,29.99,SE,138,2.0,11.0,66,0.00,,,0.00,561,WeatherCatV1.15B25,2013-08-18 19:17:00,
2013-08-18 14:19:00,77.5,64.8,29.99,SSW,194,1.0,14.0,65,0.00,,,0.00,436,WeatherCatV1.15B25,2013-08-18 19:19:00,
2013-08-18 14:21:00,77.3,65.5,29.99,South,182,4.0,7.0,67,0.00,,,0.00,436,WeatherCatV1.15B25,2013-08-18 19:21:00,
2013-08-18 14:22:00,77.3,65.5,29.99,South,185,3.0,15.0,67,0.00,,,0.00,436,WeatherCatV1.15B25,2013-08-18 19:22:00,
2013-08-18 14:24:00,77.3,65.0,29.99,South,190,0.0,12.0,66,0.00,,,0.00,462,WeatherCatV1.15B25,2013-08-18 19:24:00,
2013-08-18 14:25:00,77.3,65.0,29.99,South,188,6.0,12.0,66,0.00,,,0.00,548,WeatherCatV1.15B25,2013-08-18 19:25:00,
2013-08-18 14:26:00,77.3,65.5,29.99,SSW,197,5.0,6.0,67,0.00,,,0.00,519,WeatherCatV1.15B25,2013-08-18 19:26:00,
2013-08-18 14:28:00,77.4,66.0,29.99,SSW,198,2.0,4.0,68,0.00,,,0.00,584,WeatherCatV1.15B25,2013-08-18 19:28:00,
2013-08-18 14:29:00,77.6,65.3,29.99,SE,141,4.0,12.0,66,0.00,,,0.00,584,WeatherCatV1.15B25,2013-08-18 19:29:00,
2013-08-18 14:30:00,77.7,65.4,29.99,WNW,284,0.0,12.0,66,0.00,,,0.00,584,WeatherCatV1.15B25,2013-08-18 19:30:00,
2013-08-18 14:31:00,77.9,66.0,29.99,ENE,71,6.0,9.0,67,0.00,,,0.00,601,WeatherCatV1.15B25,2013-08-18 19:31:00,
2013-08-18 14:33:00,78.0,64.8,29.99,SSW,198,6.0,18.0,64,0.00,,,0.00,452,WeatherCatV1.15B25,2013-08-18 19:33:00,
2013-08-18 14:34:00,77.6,64.9,29.99,SSW,200,0.0,18.0,65,0.00,,,0.00,483,WeatherCatV1.15B25,2013-08-18 19:34:00,
2013-08-18 14:35:00,77.6,65.3,29.99,South,180,9.0,13.0,66,0.00,,,0.00,483,WeatherCatV1.15B25,2013-08-18 19:35:00,
2013-08-18 14:36:00,77.4,64.7,29.99,SSE,157,1.0,11.0,65,0.00,,,0.00,454,WeatherCatV1.15B25,2013-08-18 19:36:00,
2013-08-18 14:38:00,77.3,65.0,29.99,SSE,156,9.0,9.0,66,0.00,,,0.00,508,WeatherCatV1.15B25,2013-08-18 19:38:00,
2013-08-18 14:39:00,77.2,64.9,29.99,South,169,2.0,9.0,66,0.00,,,0.00,508,WeatherCatV1.15B25,2013-08-18 19:39:00,
2013-08-18 14:40:00,77.2,65.4,29.99,SW,227,4.0,10.0,67,0.00,,,0.00,508,WeatherCatV1.15B25,2013-08-18 19:40:00,
2013-08-18 14:41:00,77.3,65.5,29.98,SW,235,5.0,10.0,67,0.00,,,0.00,411,WeatherCatV1.15B25,2013-08-18 19:41:00,
2013-08-18 14:43:00,77.2,64.9,29.99,SSW,199,1.0,11.0,66,0.00,,,0.00,448,WeatherCatV1.15B25,2013-08-18 19:43:00,
2013-08-18 14:44:00,77.1,64.8,29.99,South,184,0.0,5.0,66,0.00,,,0.00,448,WeatherCatV1.15B25,2013-08-18 19:44:00,
2013-08-18 14:45:00,77.2,65.4,29.99,SW,215,8.0,9.0,67,0.00,,,0.00,448,WeatherCatV1.15B25,2013-08-18 19:45:00,
2013-08-18 14:46:00,77.2,64.9,29.98,SE,143,5.0,13.0,66,0.00,,,0.00,448,WeatherCatV1.15B25,2013-08-18 19:46:00,
2013-08-18 14:48:00,77.1,64.4,29.98,South,175,6.0,13.0,65,0.00,,,0.00,1069,WeatherCatV1.15B25,2013-08-18 19:48:00,
2013-08-18 14:49:00,77.2,64.9,29.98,SSW,194,5.0,13.0,66,0.00,,,0.00,1069,WeatherCatV1.15B25,2013-08-18 19:49:00,
2013-08-18 14:50:00,77.4,65.1,29.98,South,183,0.0,7.0,66,0.00,,,0.00,1032,WeatherCatV1.15B25,2013-08-18 19:50:00,
2013-08-18 14:52:00,77.8,65.1,29.98,South,182,10.0,13.0,65,0.00,,,0.00,998,WeatherCatV1.15B25,2013-08-18 19:52:00,
2013-08-18 14:53:00,77.9,65.2,29.98,East,79,5.0,13.0,65,0.00,,,0.00,475,WeatherCatV1.15B25,2013-08-18 19:53:00,
2013-08-18 14:55:00,77.8,65.1,29.98,SSW,199,9.0,12.0,65,0.00,,,0.00,475,WeatherCatV1.15B25,2013-08-18 19:55:00,
2013-08-18 14:56:00,77.8,65.1,29.98,SSE,155,4.0,12.0,65,0.00,,,0.00,475,WeatherCatV1.15B25,2013-08-18 19:56:00,
2013-08-18 14:57:00,77.8,65.1,29.98,SW,215,12.0,12.0,65,0.00,,,0.00,475,WeatherCatV1.15B25,2013-08-18 19:57:00,
2013-08-18 14:59:00,77.6,64.9,29.98,SSW,202,7.0,14.0,65,0.00,,,0.00,939,WeatherCatV1.15B25,2013-08-18 19:59:00,
2013-08-18 15:00:00,77.7,65.0,29.98,South,186,4.0,11.0,65,0.00,,,0.00,939,WeatherCatV1.15B25,2013-08-18 20:00:00,
2013-08-18 15:01:00,77.7,65.4,29.98,SSW,202,4.0,6.0,66,0.00,,,0.00,939,WeatherCatV1.15B25,2013-08-18 20:01:00,
2013-08-18 15:02:00,77.8,65.1,29.98,SSE,150,3.0,14.0,65,0.00,,,0.00,939,WeatherCatV1.15B25,2013-08-18 20:02:00,
2013-08-18 15:04:00,77.9,65.2,29.98,SE,128,6.0,11.0,65,0.00,,,0.00,939,WeatherCatV1.15B25,2013-08-18 20:04:00,
2013-08-18 15:05:00,77.9,65.6,29.98,SSW,198,6.0,9.0,66,0.00,,,0.00,577,WeatherCatV1.15B25,2013-08-18 20:05:00,
2013-08-18 15:06:00,78.0,65.3,29.98,South,187,5.0,11.0,65,0.00,,,0.00,918,WeatherCatV1.15B25,2013-08-18 20:06:00,
2013-08-18 15:07:00,78.1,65.4,29.98,SSW,196,9.0,11.0,65,0.00,,,0.00,918,WeatherCatV1.15B25,2013-08-18 20:07:00,
2013-08-18 15:09:00,78.1,65.4,29.97,SSW,203,3.0,11.0,65,0.00,,,0.00,360,WeatherCatV1.15B25,2013-08-18 20:09:00,
2013-08-18 15:10:00,78.1,65.4,29.97,South,184,2.0,11.0,65,0.00,,,0.00,360,WeatherCatV1.15B25,2013-08-18 20:10:00,
2013-08-18 15:11:00,78.1,65.8,29.98,SSE,157,10.0,10.0,66,0.00,,,0.00,360,WeatherCatV1.15B25,2013-08-18 20:11:00,
2013-08-18 15:12:00,78.1,65.4,29.98,SSE,167,1.0,10.0,65,0.00,,,0.00,441,WeatherCatV1.15B25,2013-08-18 20:12:00,
2013-08-18 15:14:00,78.1,64.9,29.97,SE,140,9.0,14.0,64,0.00,,,0.00,441,WeatherCatV1.15B25,2013-08-18 20:14:00,
2013-08-18 15:15:00,78.0,65.3,29.98,SSE,164,5.0,14.0,65,0.00,,,0.00,531,WeatherCatV1.15B25,2013-08-18 20:15:00,
2013-08-18 15:16:00,78.0,65.3,29.98,South,184,9.0,14.0,65,0.00,,,0.00,531,WeatherCatV1.15B25,2013-08-18 20:16:00,
2013-08-18 15:17:00,77.9,64.7,29.98,SSE,164,9.0,9.0,64,0.00,,,0.00,545,WeatherCatV1.15B25,2013-08-18 20:17:00,
2013-08-18 15:19:00,77.7,64.5,29.98,SE,144,4.0,12.0,64,0.00,,,0.00,529,WeatherCatV1.15B25,2013-08-18 20:19:00,
2013-08-18 15:20:00,77.7,64.5,29.98,SSW,202,11.0,12.0,64,0.00,,,0.00,529,WeatherCatV1.15B25,2013-08-18 20:20:00,
2013-08-18 15:21:00,77.8,65.1,29.98,SW,214,16.0,16.0,65,0.00,,,0.00,529,WeatherCatV1.15B25,2013-08-18 20:21:00,
2013-08-18 15:22:00,77.8,64.6,29.98,SSE,152,2.0,16.0,64,0.00,,,0.00,689,WeatherCatV1.15B25,2013-08-18 20:22:00,
2013-08-18 15:24:00,78.0,65.3,29.97,South,178,2.0,9.0,65,0.00,,,0.00,963,WeatherCatV1.15B25,2013-08-18 20:24:00,
2013-08-18 15:26:00,78.2,65.0,29.97,SSW,198,7.0,10.0,64,0.00,,,0.00,445,WeatherCatV1.15B25,2013-08-18 20:26:00,
2013-08-18 15:27:00,78.3,65.5,29.97,South,188,3.0,10.0,65,0.00,,,0.00,418,WeatherCatV1.15B25,2013-08-18 20:27:00,
2013-08-18 15:28:00,78.3,65.5,29.97,South,188,0.0,6.0,65,0.00,,,0.00,483,WeatherCatV1.15B25,2013-08-18 20:28:00,
2013-08-18 15:29:00,78.3,65.5,29.97,SE,130,3.0,9.0,65,0.00,,,0.00,390,WeatherCatV1.15B25,2013-08-18 20:29:00,
2013-08-18 15:31:00,78.1,65.4,29.97,SSE,163,12.0,16.0,65,0.00,,,0.00,388,WeatherCatV1.15B25,2013-08-18 20:31:00,
2013-08-18 15:32:00,77.9,65.2,29.97,SE,146,1.0,12.0,65,0.00,,,0.00,510,WeatherCatV1.15B25,2013-08-18 20:32:00,
2013-08-18 15:33:00,77.9,65.6,29.97,SE,145,0.0,8.0,66,0.00,,,0.00,510,WeatherCatV1.15B25,2013-08-18 20:33:00,
2013-08-18 15:34:00,78.0,65.7,29.97,SSE,147,0.0,3.0,66,0.00,,,0.00,554,WeatherCatV1.15B25,2013-08-18 20:34:00,
2013-08-18 15:36:00,78.2,65.0,29.97,SE,128,2.0,9.0,64,0.00,,,0.00,956,WeatherCatV1.15B25,2013-08-18 20:36:00,
2013-08-18 15:38:00,78.6,65.8,29.97,SSE,161,3.0,6.0,65,0.00,,,0.00,898,WeatherCatV1.15B25,2013-08-18 20:38:00,
2013-08-18 15:39:00,78.9,66.1,29.97,SSW,196,3.0,6.0,65,0.00,,,0.00,898,WeatherCatV1.15B25,2013-08-18 20:39:00,
2013-08-18 15:41:00,79.2,65.9,29.97,SSE,168,12.0,12.0,64,0.00,,,0.00,898,WeatherCatV1.15B25,2013-08-18 20:41:00,
2013-08-18 15:42:00,79.2,65.9,29.97,SE,137,4.0,15.0,64,0.00,,,0.00,898,WeatherCatV1.15B25,2013-08-18 20:42:00,
2013-08-18 15:43:00,79.1,65.4,29.97,SSE,149,2.0,15.0,63,0.00,,,0.00,826,WeatherCatV1.15B25,2013-08-18 20:43:00,
2013-08-18 15:45:00,79.1,65.9,29.97,SSW,211,5.0,7.0,64,0.00,,,0.00,826,WeatherCatV1.15B25,2013-08-18 20:45:00,
2013-08-18 15:47:00,79.1,65.4,29.97,SSW,205,5.0,15.0,63,0.00,,,0.00,821,WeatherCatV1.15B25,2013-08-18 20:47:00,
2013-08-18 15:48:00,79.1,65.9,29.97,SE,136,2.0,5.0,64,0.00,,,0.00,823,WeatherCatV1.15B25,2013-08-18 20:48:00,
2013-08-18 15:49:00,79.1,65.9,29.97,SE,136,0.0,5.0,64,0.00,,,0.00,823,WeatherCatV1.15B25,2013-08-18 20:49:00,
2013-08-18 15:50:00,79.3,66.5,29.97,SE,144,3.0,6.0,65,0.00,,,0.00,833,WeatherCatV1.15B25,2013-08-18 20:50:00,
2013-08-18 15:52:00,79.5,65.3,29.97,SSW,206,7.0,12.0,62,0.00,,,0.00,833,WeatherCatV1.15B25,2013-08-18 20:52:00,
2013-08-18 15:53:00,79.4,65.2,29.97,East,99,6.0,12.0,62,0.00,,,0.00,735,WeatherCatV1.15B25,2013-08-18 20:53:00,
2013-08-18 15:54:00,79.3,65.1,29.97,SE,128,0.0,10.0,62,0.00,,,0.00,735,WeatherCatV1.15B25,2013-08-18 20:54:00,
2013-08-18 15:55:00,79.0,64.4,29.97,South,186,9.0,13.0,61,0.00,,,0.00,775,WeatherCatV1.15B25,2013-08-18 20:55:00,
2013-08-18 15:57:00,78.8,64.7,29.97,SSW,200,7.0,11.0,62,0.00,,,0.00,756,WeatherCatV1.15B25,2013-08-18 20:57:00,
2013-08-18 15:58:00,78.8,64.7,29.97,South,182,5.0,11.0,62,0.00,,,0.00,737,WeatherCatV1.15B25,2013-08-18 20:58:00,
2013-08-18 15:59:00,78.8,64.7,29.97,South,190,14.0,14.0,62,0.00,,,0.00,737,WeatherCatV1.15B25,2013-08-18 20:59:00,
2013-08-18 16:00:00,78.9,65.2,29.97,South,174,3.0,14.0,63,0.00,,,0.00,635,WeatherCatV1.15B25,2013-08-18 21:00:00,
2013-08-18 16:02:00,79.1,64.9,29.97,SSW,192,6.0,12.0,62,0.00,,,0.00,561,WeatherCatV1.15B25,2013-08-18 21:02:00,
2013-08-18 16:03:00,79.1,64.5,29.97,SSW,194,9.0,12.0,61,0.00,,,0.00,561,WeatherCatV1.15B25,2013-08-18 21:03:00,
2013-08-18 16:04:00,79.0,64.4,29.97,South,186,9.0,13.0,61,0.00,,,0.00,735,WeatherCatV1.15B25,2013-08-18 21:04:00,
2013-08-18 16:06:00,78.7,64.1,29.97,SSE,148,3.0,15.0,61,0.00,,,0.00,729,WeatherCatV1.15B25,2013-08-18 21:06:00,
2013-08-18 16:07:00,78.4,64.3,29.97,South,183,5.0,15.0,62,0.00,,,0.00,717,WeatherCatV1.15B25,2013-08-18 21:07:00,
2013-08-18 16:08:00,78.2,64.1,29.97,SSW,203,6.0,12.0,62,0.00,,,0.00,717,WeatherCatV1.15B25,2013-08-18 21:08:00,
2013-08-18 16:09:00,78.1,64.0,29.96,SE,128,4.0,12.0,62,0.00,,,0.00,717,WeatherCatV1.15B25,2013-08-18 21:09:00,
2013-08-18 16:11:00,78.2,65.0,29.96,SSE,167,0.0,6.0,64,0.00,,,0.00,724,WeatherCatV1.15B25,2013-08-18 21:11:00,
2013-08-18 16:12:00,78.4,65.2,29.96,SSW,210,2.0,9.0,64,0.00,,,0.00,703,WeatherCatV1.15B25,2013-08-18 21:12:00,
2013-08-18 16:13:00,78.4,64.7,29.96,South,174,0.0,9.0,63,0.00,,,0.00,703,WeatherCatV1.15B25,2013-08-18 21:13:00,
2013-08-18 16:14:00,78.6,64.9,29.96,SE,130,2.0,7.0,63,0.00,,,0.00,687,WeatherCatV1.15B25,2013-08-18 21:14:00,
2013-08-18 16:17:00,78.8,65.1,29.96,SE,146,0.0,10.0,63,0.00,,,0.00,686,WeatherCatV1.15B25,2013-08-18 21:17:00,
2013-08-18 16:18:00,79.0,64.8,29.96,SE,124,3.0,11.0,62,0.00,,,0.00,694,WeatherCatV1.15B25,2013-08-18 21:18:00,
2013-08-18 16:19:00,79.1,65.4,29.96,SSW,211,7.0,11.0,63,0.00,,,0.00,686,WeatherCatV1.15B25,2013-08-18 21:19:00,
2013-08-18 16:20:00,79.1,65.4,29.96,SSW,205,2.0,9.0,63,0.00,,,0.00,686,WeatherCatV1.15B25,2013-08-18 21:20:00,
2013-08-18 16:22:00,79.3,65.6,29.96,SSE,168,5.0,13.0,63,0.00,,,0.00,682,WeatherCatV1.15B25,2013-08-18 21:22:00,
2013-08-18 16:23:00,79.4,65.7,29.96,South,178,11.0,13.0,63,0.00,,,0.00,680,WeatherCatV1.15B25,2013-08-18 21:23:00,
2013-08-18 16:24:00,79.3,64.7,29.96,South,180,3.0,13.0,61,0.00,,,0.00,679,WeatherCatV1.15B25,2013-08-18 21:24:00,
2013-08-18 16:25:00,79.3,64.7,29.96,SSE,156,7.0,13.0,61,0.00,,,0.00,671,WeatherCatV1.15B25,2013-08-18 21:25:00,
2013-08-18 16:27:00,78.8,64.7,29.96,SSW,211,4.0,13.0,62,0.00,,,0.00,675,WeatherCatV1.15B25,2013-08-18 21:27:00,
2013-08-18 16:29:00,78.7,64.6,29.96,South,183,4.0,12.0,62,0.00,,,0.00,675,WeatherCatV1.15B25,2013-08-18 21:29:00,
2013-08-18 16:30:00,78.7,64.6,29.96,SSW,213,7.0,13.0,62,0.00,,,0.00,673,WeatherCatV1.15B25,2013-08-18 21:30:00,
2013-08-18 16:32:00,78.8,65.1,29.96,SSE,165,7.0,16.0,63,0.00,,,0.00,682,WeatherCatV1.15B25,2013-08-18 21:32:00,
2013-08-18 16:34:00,78.8,65.1,29.96,ESE,111,2.0,7.0,63,0.00,,,0.00,700,WeatherCatV1.15B25,2013-08-18 21:34:00,
2013-08-18 16:35:00,78.9,65.2,29.96,South,188,5.0,15.0,63,0.00,,,0.00,700,WeatherCatV1.15B25,2013-08-18 21:35:00,
2013-08-18 16:37:00,79.0,65.3,29.96,SW,219,7.0,12.0,63,0.00,,,0.00,686,WeatherCatV1.15B25,2013-08-18 21:37:00,
2013-08-18 16:40:00,78.9,65.2,29.96,SW,225,4.0,13.0,63,0.00,,,0.00,654,WeatherCatV1.15B25,2013-08-18 21:40:00,
2013-08-18 16:43:00,78.9,65.2,29.95,South,182,3.0,12.0,63,0.00,,,0.00,663,WeatherCatV1.15B25,2013-08-18 21:43:00,
2013-08-18 16:45:00,79.2,65.5,29.95,SSE,147,6.0,10.0,63,0.00,,,0.00,670,WeatherCatV1.15B25,2013-08-18 21:45:00,
2013-08-18 16:46:00,79.2,65.9,29.95,SW,214,5.0,10.0,64,0.00,,,0.00,657,WeatherCatV1.15B25,2013-08-18 21:46:00,
2013-08-18 16:48:00,79.5,65.8,29.95,SW,231,8.0,10.0,63,0.00,,,0.00,629,WeatherCatV1.15B25,2013-08-18 21:48:00,
2013-08-18 16:50:00,79.6,65.4,29.95,SSE,168,4.0,13.0,62,0.00,,,0.00,628,WeatherCatV1.15B25,2013-08-18 21:50:00,
2013-08-18 16:51:00,79.6,64.9,29.95,SSW,196,11.0,13.0,61,0.00,,,0.00,610,WeatherCatV1.15B25,2013-08-18 21:51:00,
2013-08-18 16:53:00,79.4,65.2,29.95,SSE,167,4.0,11.0,62,0.00,,,0.00,617,WeatherCatV1.15B25,2013-08-18 21:53:00,
2013-08-18 16:55:00,79.4,66.1,29.95,SE,131,1.0,4.0,64,0.00,,,0.00,624,WeatherCatV1.15B25,2013-08-18 21:55:00,
2013-08-18 16:56:00,79.5,65.8,29.95,SW,214,8.0,11.0,63,0.00,,,0.00,598,WeatherCatV1.15B25,2013-08-18 21:56:00,
2013-08-18 16:58:00,79.6,64.9,29.95,SSE,164,4.0,12.0,61,0.00,,,0.00,633,WeatherCatV1.15B25,2013-08-18 21:58:00,
2013-08-18 17:00:00,79.6,65.4,29.95,SSE,163,0.0,12.0,62,0.00,,,0.00,633,WeatherCatV1.15B25,2013-08-18 22:00:00,
2013-08-18 17:01:00,79.4,64.8,29.95,SE,132,1.0,9.0,61,0.00,,,0.00,190,WeatherCatV1.15B25,2013-08-18 22:01:00,
2013-08-18 17:04:00,78.8,65.1,29.95,SSW,200,15.0,15.0,63,0.00,,,0.00,587,WeatherCatV1.15B25,2013-08-18 22:04:00,
2013-08-18 17:05:00,78.7,64.6,29.95,South,175,4.0,15.0,62,0.00,,,0.00,587,WeatherCatV1.15B25,2013-08-18 22:05:00,
2013-08-18 17:06:00,78.7,64.6,29.95,SE,138,3.0,15.0,62,0.00,,,0.00,587,WeatherCatV1.15B25,2013-08-18 22:06:00,
2013-08-18 17:09:00,78.7,65.0,29.95,SSE,165,9.0,10.0,63,0.00,,,0.00,568,WeatherCatV1.15B25,2013-08-18 22:09:00,
2013-08-18 17:10:00,78.7,64.6,29.95,South,178,4.0,11.0,62,0.00,,,0.00,561,WeatherCatV1.15B25,2013-08-18 22:10:00,
2013-08-18 17:11:00,78.7,65.0,29.95,South,181,0.0,11.0,63,0.00,,,0.00,563,WeatherCatV1.15B25,2013-08-18 22:11:00,
2013-08-18 17:15:00,79.0,64.8,29.95,SE,139,1.0,6.0,62,0.00,,,0.00,540,WeatherCatV1.15B25,2013-08-18 22:15:00,
2013-08-18 17:16:00,79.2,65.0,29.95,SSW,199,6.0,6.0,62,0.00,,,0.00,536,WeatherCatV1.15B25,2013-08-18 22:16:00,
2013-08-18 17:20:00,79.3,64.7,29.95,South,173,7.0,14.0,61,0.00,,,0.00,526,WeatherCatV1.15B25,2013-08-18 22:20:00,
2013-08-18 17:21:00,79.2,64.1,29.95,SSW,195,4.0,11.0,60,0.00,,,0.00,529,WeatherCatV1.15B25,2013-08-18 22:21:00,
2013-08-18 17:25:00,78.9,64.3,29.94,South,169,0.0,3.0,61,0.00,,,0.00,526,WeatherCatV1.15B25,2013-08-18 22:25:00,
2013-08-18 17:26:00,79.1,64.9,29.94,South,169,1.0,3.0,62,0.00,,,0.00,517,WeatherCatV1.15B25,2013-08-18 22:26:00,
2013-08-18 17:27:00,79.3,65.1,29.94,South,169,0.0,3.0,62,0.00,,,0.00,487,WeatherCatV1.15B25,2013-08-18 22:27:00,
2013-08-18 17:30:00,79.7,65.5,29.94,South,172,0.0,5.0,62,0.00,,,0.00,489,WeatherCatV1.15B25,2013-08-18 22:30:00,
2013-08-18 17:31:00,79.8,65.6,29.94,South,176,0.0,5.0,62,0.00,,,0.00,490,WeatherCatV1.15B25,2013-08-18 22:31:00,
2013-08-18 17:32:00,80.0,65.8,29.94,SE,130,2.0,2.0,62,0.00,,,0.00,506,WeatherCatV1.15B25,2013-08-18 22:32:00,
2013-08-18 17:35:00,79.8,64.7,29.94,South,180,5.0,10.0,60,0.00,,,0.00,497,WeatherCatV1.15B25,2013-08-18 22:35:00,
2013-08-18 17:36:00,79.7,65.0,29.95,East,101,0.0,4.0,61,0.00,,,0.00,480,WeatherCatV1.15B25,2013-08-18 22:36:00,
2013-08-18 17:37:00,79.6,64.9,29.95,SSE,159,4.0,7.0,61,0.00,,,0.00,480,WeatherCatV1.15B25,2013-08-18 22:37:00,
2013-08-18 17:40:00,79.2,64.1,29.95,South,184,2.0,13.0,60,0.00,,,0.00,454,WeatherCatV1.15B25,2013-08-18 22:40:00,
2013-08-18 17:41:00,79.0,64.4,29.94,SSW,193,1.0,10.0,61,0.00,,,0.00,464,WeatherCatV1.15B25,2013-08-18 22:41:00,
2013-08-18 17:42:00,79.0,64.4,29.94,SSW,192,0.0,10.0,61,0.00,,,0.00,468,WeatherCatV1.15B25,2013-08-18 22:42:00,
2013-08-18 17:45:00,79.2,64.6,29.94,SSW,195,5.0,8.0,61,0.00,,,0.00,446,WeatherCatV1.15B25,2013-08-18 22:45:00,
2013-08-18 17:46:00,79.2,64.6,29.94,SE,144,7.0,8.0,61,0.00,,,0.00,441,WeatherCatV1.15B25,2013-08-18 22:46:00,
2013-08-18 17:47:00,79.2,64.6,29.94,ESE,115,5.0,8.0,61,0.00,,,0.00,441,WeatherCatV1.15B25,2013-08-18 22:47:00,
2013-08-18 17:48:00,79.2,65.0,29.94,SSE,150,0.0,7.0,62,0.00,,,0.00,439,WeatherCatV1.15B25,2013-08-18 22:48:00,
2013-08-18 17:50:00,79.2,64.1,29.94,SSW,205,12.0,12.0,60,0.00,,,0.00,424,WeatherCatV1.15B25,2013-08-18 22:50:00,
2013-08-18 17:51:00,79.2,64.1,29.94,SSE,150,6.0,12.0,60,0.00,,,0.00,424,WeatherCatV1.15B25,2013-08-18 22:51:00,
2013-08-18 17:52:00,79.1,64.0,29.94,SSW,195,3.0,12.0,60,0.00,,,0.00,424,WeatherCatV1.15B25,2013-08-18 22:52:00,
2013-08-18 17:53:00,79.1,64.0,29.94,SSW,194,1.0,5.0,60,0.00,,,0.00,415,WeatherCatV1.15B25,2013-08-18 22:53:00,
2013-08-18 17:56:00,79.2,64.6,29.94,South,175,9.0,11.0,61,0.00,,,0.00,399,WeatherCatV1.15B25,2013-08-18 22:56:00,
2013-08-18 17:57:00,79.2,64.1,29.94,South,180,5.0,11.0,60,0.00,,,0.00,401,WeatherCatV1.15B25,2013-08-18 22:57:00,
2013-08-18 17:58:00,79.2,64.6,29.94,SW,223,6.0,10.0,61,0.00,,,0.00,390,WeatherCatV1.15B25,2013-08-18 22:58:00,
2013-08-18 18:01:00,79.1,64.5,29.94,SSE,148,5.0,7.0,61,0.00,,,0.00,376,WeatherCatV1.15B25,2013-08-18 23:01:00,
2013-08-18 18:02:00,79.2,65.0,29.94,SSW,211,3.0,9.0,62,0.00,,,0.00,388,WeatherCatV1.15B25,2013-08-18 23:02:00,
2013-08-18 18:03:00,79.2,64.6,29.94,South,183,2.0,9.0,61,0.00,,,0.00,373,WeatherCatV1.15B25,2013-08-18 23:03:00,
2013-08-18 18:06:00,79.1,64.5,29.95,South,171,6.0,7.0,61,0.00,,,0.00,385,WeatherCatV1.15B25,2013-08-18 23:06:00,
2013-08-18 18:07:00,79.1,64.5,29.95,SSE,164,1.0,9.0,61,0.00,,,0.00,378,WeatherCatV1.15B25,2013-08-18 23:07:00,
2013-08-18 18:08:00,79.0,64.4,29.95,SSE,164,0.0,9.0,61,0.00,,,0.00,378,WeatherCatV1.15B25,2013-08-18 23:08:00,
2013-08-18 18:11:00,79.1,64.9,29.95,South,186,1.0,8.0,62,0.00,,,0.00,350,WeatherCatV1.15B25,2013-08-18 23:11:00,
2013-08-18 18:12:00,79.2,64.1,29.95,South,170,2.0,8.0,60,0.00,,,0.00,285,WeatherCatV1.15B25,2013-08-18 23:12:00,
2013-08-18 18:13:00,79.1,63.5,29.95,South,190,4.0,12.0,59,0.00,,,0.00,285,WeatherCatV1.15B25,2013-08-18 23:13:00,
2013-08-18 18:16:00,78.7,63.6,29.95,SW,222,0.0,5.0,60,0.00,,,0.00,176,WeatherCatV1.15B25,2013-08-18 23:16:00,
2013-08-18 18:18:00,78.7,64.1,29.95,SSE,155,2.0,9.0,61,0.00,,,0.00,132,WeatherCatV1.15B25,2013-08-18 23:18:00,
2013-08-18 18:21:00,78.1,64.0,29.95,SSW,193,6.0,11.0,62,0.00,,,0.00,130,WeatherCatV1.15B25,2013-08-18 23:21:00,
2013-08-18 18:23:00,77.9,63.8,29.95,SE,144,2.0,8.0,62,0.00,,,0.00,111,WeatherCatV1.15B25,2013-08-18 23:23:00,
2013-08-18 18:24:00,77.7,63.6,29.95,SE,144,2.0,4.0,62,0.00,,,0.00,105,WeatherCatV1.15B25,2013-08-18 23:24:00,
2013-08-18 18:26:00,77.4,63.3,29.95,South,177,3.0,9.0,62,0.00,,,0.00,114,WeatherCatV1.15B25,2013-08-18 23:26:00,
2013-08-18 18:27:00,77.4,63.3,29.95,SSE,159,6.0,9.0,62,0.00,,,0.00,109,WeatherCatV1.15B25,2013-08-18 23:27:00,
2013-08-18 18:28:00,77.3,63.2,29.95,South,174,6.0,9.0,62,0.00,,,0.00,111,WeatherCatV1.15B25,2013-08-18 23:28:00,
2013-08-18 18:29:00,77.2,63.6,29.95,South,184,3.0,12.0,63,0.00,,,0.00,121,WeatherCatV1.15B25,2013-08-18 23:29:00,
2013-08-18 18:31:00,77.0,63.4,29.95,South,183,4.0,4.0,63,0.00,,,0.00,156,WeatherCatV1.15B25,2013-08-18 23:31:00,
2013-08-18 18:32:00,77.0,63.4,29.95,South,184,3.0,4.0,63,0.00,,,0.00,156,WeatherCatV1.15B25,2013-08-18 23:32:00,
2013-08-18 18:33:00,77.0,63.9,29.95,South,183,0.0,4.0,64,0.00,,,0.00,160,WeatherCatV1.15B25,2013-08-18 23:33:00,
2013-08-18 18:34:00,77.0,63.9,29.95,South,183,0.0,3.0,64,0.00,,,0.00,160,WeatherCatV1.15B25,2013-08-18 23:34:00,
2013-08-18 18:37:00,77.0,63.4,29.95,SSE,167,10.0,12.0,63,0.00,,,0.00,227,WeatherCatV1.15B25,2013-08-18 23:37:00,
2013-08-18 18:38:00,77.0,63.4,29.95,SE,138,3.0,10.0,63,0.00,,,0.00,165,WeatherCatV1.15B25,2013-08-18 23:38:00,
2013-08-18 18:39:00,77.1,63.5,29.95,SE,128,1.0,6.0,63,0.00,,,0.00,156,WeatherCatV1.15B25,2013-08-18 23:39:00,
2013-08-18 18:40:00,77.1,64.0,29.94,East,95,6.0,6.0,64,0.00,,,0.00,142,WeatherCatV1.15B25,2013-08-18 23:40:00,
2013-08-18 18:42:00,77.1,63.5,29.94,SE,146,4.0,7.0,63,0.00,,,0.00,127,WeatherCatV1.15B25,2013-08-18 23:42:00,
2013-08-18 18:43:00,77.1,64.0,29.95,SSE,164,4.0,6.0,64,0.00,,,0.00,121,WeatherCatV1.15B25,2013-08-18 23:43:00,
2013-08-18 18:44:00,77.1,64.0,29.95,SSE,162,0.0,4.0,64,0.00,,,0.00,116,WeatherCatV1.15B25,2013-08-18 23:44:00,
2013-08-18 18:45:00,77.1,64.0,29.95,SE,142,0.0,9.0,64,0.00,,,0.00,113,WeatherCatV1.15B25,2013-08-18 23:45:00,
2013-08-18 18:47:00,77.1,64.4,29.95,SE,142,4.0,4.0,65,0.00,,,0.00,111,WeatherCatV1.15B25,2013-08-18 23:47:00,
2013-08-18 18:48:00,77.0,63.9,29.95,SSE,156,4.0,5.0,64,0.00,,,0.00,113,WeatherCatV1.15B25,2013-08-18 23:48:00,
2013-08-18 18:49:00,77.0,63.9,29.95,South,178,0.0,5.0,64,0.00,,,0.00,114,WeatherCatV1.15B25,2013-08-18 23:49:00,
2013-08-18 18:50:00,76.9,64.2,29.95,SSE,161,2.0,5.0,65,0.00,,,0.00,118,WeatherCatV1.15B25,2013-08-18 23:50:00,
2013-08-18 18:52:00,76.9,64.2,29.95,ESE,121,2.0,8.0,65,0.00,,,0.00,120,WeatherCatV1.15B25,2013-08-18 23:52:00,
2013-08-18 18:54:00,76.8,64.1,29.95,SE,142,3.0,6.0,65,0.00,,,0.00,118,WeatherCatV1.15B25,2013-08-18 23:54:00,
2013-08-18 18:55:00,76.7,64.0,29.95,South,175,1.0,4.0,65,0.00,,,0.00,120,WeatherCatV1.15B25,2013-08-18 23:55:00,
2013-08-18 18:57:00,76.7,64.0,29.94,South,175,2.0,4.0,65,0.00,,,0.00,120,WeatherCatV1.15B25,2013-08-18 23:57:00,
2013-08-18 18:59:00,76.7,64.5,29.94,South,173,0.0,3.0,66,0.00,,,0.00,104,WeatherCatV1.15B25,2013-08-18 23:59:00,
2013-08-18 19:00:00,76.7,64.5,29.94,South,173,0.0,3.0,66,0.00,,,0.00,104,WeatherCatV1.15B25,2013-08-19 00:00:00,
2013-08-18 19:02:00,76.6,64.4,29.94,SSE,150,5.0,9.0,66,0.00,,,0.00,86,WeatherCatV1.15B25,2013-08-19 00:02:00,
2013-08-18 19:05:00,76.5,64.7,29.94,SSE,153,2.0,3.0,67,0.00,,,0.00,72,WeatherCatV1.15B25,2013-08-19 00:05:00,
2013-08-18 19:06:00,76.4,64.6,29.94,SW,216,7.0,7.0,67,0.00,,,0.00,69,WeatherCatV1.15B25,2013-08-19 00:06:00,
2013-08-18 19:07:00,76.3,64.5,29.94,South,178,3.0,7.0,67,0.00,,,0.00,74,WeatherCatV1.15B25,2013-08-19 00:07:00,
2013-08-18 19:10:00,76.1,64.3,29.94,SSE,153,4.0,9.0,67,0.00,,,0.00,65,WeatherCatV1.15B25,2013-08-19 00:10:00,
2013-08-18 19:11:00,76.0,64.2,29.94,SSE,148,3.0,5.0,67,0.00,,,0.00,62,WeatherCatV1.15B25,2013-08-19 00:11:00,
2013-08-18 19:12:00,75.9,64.1,29.94,SSE,150,3.0,4.0,67,0.00,,,0.00,60,WeatherCatV1.15B25,2013-08-19 00:12:00,
2013-08-18 19:13:00,75.9,64.1,29.94,SSE,150,6.0,6.0,67,0.00,,,0.00,58,WeatherCatV1.15B25,2013-08-19 00:13:00,
2013-08-18 19:15:00,75.8,64.5,29.94,SSE,150,5.0,8.0,68,0.00,,,0.00,62,WeatherCatV1.15B25,2013-08-19 00:15:00,
2013-08-18 19:16:00,75.7,64.4,29.94,SE,146,4.0,5.0,68,0.00,,,0.00,67,WeatherCatV1.15B25,2013-08-19 00:16:00,
2013-08-18 19:18:00,75.7,64.4,29.94,South,187,5.0,7.0,68,0.00,,,0.00,67,WeatherCatV1.15B25,2013-08-19 00:18:00,
2013-08-18 19:20:00,75.6,64.3,29.94,SSW,194,3.0,9.0,68,0.00,,,0.00,62,WeatherCatV1.15B25,2013-08-19 00:20:00,
2013-08-18 19:22:00,75.5,64.2,29.94,SSW,194,0.0,5.0,68,0.00,,,0.00,65,WeatherCatV1.15B25,2013-08-19 00:22:00,
2013-08-18 19:23:00,75.5,64.2,29.94,SSW,194,2.0,4.0,68,0.00,,,0.00,67,WeatherCatV1.15B25,2013-08-19 00:23:00,
2013-08-18 19:25:00,75.5,64.6,29.94,SSW,194,2.0,3.0,69,0.00,,,0.00,62,WeatherCatV1.15B25,2013-08-19 00:25:00,
2013-08-18 19:27:00,75.5,64.6,29.94,South,173,2.0,5.0,69,0.00,,,0.00,60,WeatherCatV1.15B25,2013-08-19 00:27:00,
2013-08-18 19:28:00,75.5,64.6,29.94,South,174,0.0,5.0,69,0.00,,,0.00,58,WeatherCatV1.15B25,2013-08-19 00:28:00,
2013-08-18 19:29:00,75.5,64.6,29.94,South,169,6.0,6.0,69,0.00,,,0.00,54,WeatherCatV1.15B25,2013-08-19 00:29:00,
2013-08-18 19:30:00,75.4,64.5,29.94,SSE,165,0.0,6.0,69,0.00,,,0.00,49,WeatherCatV1.15B25,2013-08-19 00:30:00,
2013-08-18 19:31:00,75.4,64.5,29.94,SSE,165,0.0,6.0,69,0.00,,,0.00,49,WeatherCatV1.15B25,2013-08-19 00:31:00,
2013-08-18 19:32:00,75.4,64.5,29.94,SSE,165,4.0,4.0,69,0.00,,,0.00,47,WeatherCatV1.15B25,2013-08-19 00:32:00,
2013-08-18 19:33:00,75.4,64.5,29.94,SSE,165,0.0,4.0,69,0.00,,,0.00,44,WeatherCatV1.15B25,2013-08-19 00:33:00,
2013-08-18 19:34:00,75.4,64.5,29.94,SSE,165,0.0,0.0,69,0.00,,,0.00,40,WeatherCatV1.15B25,2013-08-19 00:34:00,
2013-08-18 19:36:00,75.4,64.5,29.94,SSE,165,2.0,4.0,69,0.00,,,0.00,40,WeatherCatV1.15B25,2013-08-19 00:36:00,
2013-08-18 19:37:00,75.4,64.5,29.94,SSE,166,0.0,5.0,69,0.00,,,0.00,37,WeatherCatV1.15B25,2013-08-19 00:37:00,
2013-08-18 19:38:00,75.3,64.8,29.94,SSE,166,1.0,3.0,70,0.00,,,0.00,35,WeatherCatV1.15B25,2013-08-19 00:38:00,
2013-08-18 19:39:00,75.3,64.8,29.94,SE,133,5.0,10.0,70,0.00,,,0.00,33,WeatherCatV1.15B25,2013-08-19 00:39:00,
2013-08-18 19:41:00,75.3,64.8,29.94,SE,134,2.0,4.0,70,0.00,,,0.00,32,WeatherCatV1.15B25,2013-08-19 00:41:00,
2013-08-18 19:42:00,75.3,64.8,29.94,SE,134,0.0,4.0,70,0.00,,,0.00,32,WeatherCatV1.15B25,2013-08-19 00:42:00,
2013-08-18 19:43:00,75.3,64.8,29.94,SE,134,1.0,3.0,70,0.00,,,0.00,32,WeatherCatV1.15B25,2013-08-19 00:43:00,
2013-08-18 19:44:00,75.3,64.8,29.94,SE,136,0.0,5.0,70,0.00,,,0.00,32,WeatherCatV1.15B25,2013-08-19 00:44:00,
2013-08-18 19:46:00,75.2,64.7,29.95,SSE,150,3.0,7.0,70,0.00,,,0.00,32,WeatherCatV1.15B25,2013-08-19 00:46:00,
2013-08-18 19:47:00,75.2,64.7,29.95,SSE,150,0.0,6.0,70,0.00,,,0.00,28,WeatherCatV1.15B25,2013-08-19 00:47:00,
2013-08-18 19:48:00,75.2,64.7,29.95,SSE,149,2.0,6.0,70,0.00,,,0.00,28,WeatherCatV1.15B25,2013-08-19 00:48:00,
2013-08-18 19:50:00,75.2,64.7,29.95,SSE,149,1.0,3.0,70,0.00,,,0.00,23,WeatherCatV1.15B25,2013-08-19 00:50:00,
2013-08-18 19:52:00,75.1,64.6,29.95,SSE,165,2.0,5.0,70,0.00,,,0.00,21,WeatherCatV1.15B25,2013-08-19 00:52:00,
2013-08-18 19:53:00,75.1,65.0,29.95,SSE,164,1.0,3.0,71,0.00,,,0.00,19,WeatherCatV1.15B25,2013-08-19 00:53:00,
2013-08-18 19:55:00,75.0,64.5,29.95,SSE,163,0.0,5.0,70,0.00,,,0.00,18,WeatherCatV1.15B25,2013-08-19 00:55:00,
2013-08-18 19:57:00,75.0,64.5,29.95,SSE,159,4.0,5.0,70,0.00,,,0.00,14,WeatherCatV1.15B25,2013-08-19 00:57:00,
2013-08-18 19:58:00,74.9,64.4,29.95,SSE,159,0.0,5.0,70,0.00,,,0.00,14,WeatherCatV1.15B25,2013-08-19 00:58:00,
2013-08-18 20:00:00,74.9,64.4,29.95,SSE,153,5.0,5.0,70,0.00,,,0.00,12,WeatherCatV1.15B25,2013-08-19 01:00:00,
2013-08-18 20:02:00,74.9,64.4,29.95,SSE,153,0.0,4.0,70,0.00,,,0.00,12,WeatherCatV1.15B25,2013-08-19 01:02:00,
2013-08-18 20:03:00,74.9,64.4,29.95,SSE,153,1.0,5.0,70,0.00,,,0.00,12,WeatherCatV1.15B25,2013-08-19 01:03:00,
2013-08-18 20:04:00,74.9,64.4,29.95,SSE,152,1.0,5.0,70,0.00,,,0.00,12,WeatherCatV1.15B25,2013-08-19 01:04:00,
2013-08-18 20:05:00,74.8,64.3,29.95,SSE,152,2.0,5.0,70,0.00,,,0.00,11,WeatherCatV1.15B25,2013-08-19 01:05:00,
2013-08-18 20:07:00,74.7,64.2,29.95,SE,133,0.0,7.0,70,0.00,,,0.00,9,WeatherCatV1.15B25,2013-08-19 01:07:00,
2013-08-18 20:09:00,74.6,64.2,29.95,SE,138,1.0,6.0,70,0.00,,,0.00,9,WeatherCatV1.15B25,2013-08-19 01:09:00,
2013-08-18 20:10:00,74.6,64.2,29.95,SE,141,5.0,6.0,70,0.00,,,0.00,7,WeatherCatV1.15B25,2013-08-19 01:10:00,
2013-08-18 20:12:00,74.5,64.1,29.95,SE,144,5.0,6.0,70,0.00,,,0.00,5,WeatherCatV1.15B25,2013-08-19 01:12:00,
2013-08-18 20:14:00,74.4,64.0,29.95,SE,144,2.0,4.0,70,0.00,,,0.00,5,WeatherCatV1.15B25,2013-08-19 01:14:00,
2013-08-18 20:15:00,74.4,64.0,29.95,SE,144,0.0,3.0,70,0.00,,,0.00,5,WeatherCatV1.15B25,2013-08-19 01:15:00,
2013-08-18 20:17:00,74.3,63.9,29.95,SE,142,3.0,4.0,70,0.00,,,0.00,0,WeatherCatV1.15B25,2013-08-19 01:17:00,
2013-08-18 20:18:00,74.3,63.9,29.95,SE,142,1.0,4.0,70,0.00,,,0.00,0,WeatherCatV1.15B25,2013-08-19 01:18:00,
2013-08-18 20:19:00,74.2,63.8,29.95,SE,143,1.0,7.0,70,0.00,,,0.00,0,WeatherCatV1.15B25,2013-08-19 01:19:00,
2013-08-18 20:21:00,74.2,63.8,29.95,SE,144,1.0,4.0,70,0.00,,,0.00,0,WeatherCatV1.15B25,2013-08-19 01:21:00,
2013-08-18 20:22:00,74.1,64.1,29.95,SE,145,0.0,4.0,71,0.00,,,0.00,0,WeatherCatV1.15B25,2013-08-19 01:22:00,
2013-08-18 20:23:00,74.1,64.1,29.95,SE,141,4.0,4.0,71,0.00,,,0.00,0,WeatherCatV1.15B25,2013-08-19 01:23:00,
2013-08-18 20:24:00,74.0,64.0,29.95,South,178,3.0,7.0,71,0.00,,,0.00,0,WeatherCatV1.15B25,2013-08-19 01:24:00,
2013-08-18 20:26:00,74.0,64.0,29.95,South,177,0.0,3.0,71,0.00,,,0.00,0,WeatherCatV1.15B25,2013-08-19 01:26:00,
2013-08-18 20:28:00,73.9,63.9,29.95,South,177,4.0,4.0,71,0.00,,,0.00,0,WeatherCatV1.15B25,2013-08-19 01:28:00,
2013-08-18 20:29:00,73.9,63.9,29.95,South,177,1.0,4.0,71,0.00,,,0.00,0,WeatherCatV1.15B25,2013-08-19 01:29:00,
2013-08-18 20:30:00,73.8,63.8,29.95,South,177,2.0,2.0,71,0.00,,,0.00,0,WeatherCatV1.15B25,2013-08-19 01:30:00,
2013-08-18 20:31:00,73.8,63.8,29.95,SE,143,3.0,6.0,71,0.00,,,0.00,0,WeatherCatV1.15B25,2013-08-19 01:31:00,
2013-08-18 20:33:00,73.7,63.7,29.95,SE,144,3.0,6.0,71,0.00,,,0.00,0,WeatherCatV1.15B25,2013-08-19 01:33:00,
2013-08-18 20:34:00,73.7,64.1,29.95,SE,144,3.0,5.0,72,0.00,,,0.00,0,WeatherCatV1.15B25,2013-08-19 01:34:00,
2013-08-18 20:35:00,73.7,64.1,29.95,SE,144,2.0,5.0,72,0.00,,,0.00,0,WeatherCatV1.15B25,2013-08-19 01:35:00,
2013-08-18 20:36:00,73.6,64.0,29.95,SE,144,0.0,3.0,72,0.00,,,0.00,0,WeatherCatV1.15B25,2013-08-19 01:36:00,
2013-08-18 20:38:00,73.6,64.0,29.95,SE,146,3.0,6.0,72,0.00,,,0.00,0,WeatherCatV1.15B25,2013-08-19 01:38:00,
2013-08-18 20:40:00,73.6,64.0,29.95,SE,145,1.0,6.0,72,0.00,,,0.00,0,WeatherCatV1.15B25,2013-08-19 01:40:00,
2013-08-18 20:41:00,73.6,64.0,29.95,SE,146,0.0,3.0,72,0.00,,,0.00,0,WeatherCatV1.15B25,2013-08-19 01:41:00,
2013-08-18 20:43:00,73.5,63.9,29.95,SSE,154,0.0,6.0,72,0.00,,,0.00,0,WeatherCatV1.15B25,2013-08-19 01:43:00,
2013-08-18 20:44:00,73.5,63.9,29.95,SSE,154,0.0,6.0,72,0.00,,,0.00,0,WeatherCatV1.15B25,2013-08-19 01:44:00,
2013-08-18 20:45:00,73.5,63.9,29.96,SSE,154,2.0,4.0,72,0.00,,,0.00,0,WeatherCatV1.15B25,2013-08-19 01:45:00,
2013-08-18 20:46:00,73.5,63.9,29.96,SSE,153,3.0,6.0,72,0.00,,,0.00,0,WeatherCatV1.15B25,2013-08-19 01:46:00,
2013-08-18 20:48:00,73.5,63.9,29.96,SSE,153,0.0,3.0,72,0.00,,,0.00,0,WeatherCatV1.15B25,2013-08-19 01:48:00,
2013-08-18 20:49:00,73.5,63.9,29.96,SSE,153,0.0,3.0,72,0.00,,,0.00,0,WeatherCatV1.15B25,2013-08-19 01:49:00,
2013-08-18 20:50:00,73.5,63.9,29.96,SSE,153,1.0,3.0,72,0.00,,,0.00,0,WeatherCatV1.15B25,2013-08-19 01:50:00,
2013-08-18 20:51:00,73.4,63.8,29.96,SSE,154,0.0,4.0,72,0.00,,,0.00,0,WeatherCatV1.15B25,2013-08-19 01:51:00,
2013-08-18 20:53:00,73.4,63.8,29.96,SSE,153,0.0,3.0,72,0.00,,,0.00,0,WeatherCatV1.15B25,2013-08-19 01:53:00,
2013-08-18 20:54:00,73.4,63.8,29.96,SSE,154,4.0,4.0,72,0.00,,,0.00,0,WeatherCatV1.15B25,2013-08-19 01:54:00,
2013-08-18 20:55:00,73.4,63.8,29.96,SSE,154,3.0,4.0,72,0.00,,,0.00,0,WeatherCatV1.15B25,2013-08-19 01:55:00,
2013-08-18 20:57:00,73.4,63.8,29.96,SSE,155,2.0,5.0,72,0.00,,,0.00,0,WeatherCatV1.15B25,2013-08-19 01:57:00,
2013-08-18 20:58:00,73.3,63.7,29.96,SSE,156,4.0,4.0,72,0.00,,,0.00,0,WeatherCatV1.15B25,2013-08-19 01:58:00,
2013-08-18 20:59:00,73.3,63.7,29.96,SSE,156,0.0,4.0,72,0.00,,,0.00,0,WeatherCatV1.15B25,2013-08-19 01:59:00,
2013-08-18 21:00:00,73.3,63.7,29.96,SSE,156,0.0,4.0,72,0.00,,,0.00,0,WeatherCatV1.15B25,2013-08-19 02:00:00,
2013-08-18 21:02:00,73.3,63.7,29.96,SSE,152,2.0,6.0,72,0.00,,,0.00,0,WeatherCatV1.15B25,2013-08-19 02:02:00,
2013-08-18 21:03:00,73.3,63.7,29.96,SSE,153,0.0,6.0,72,0.00,,,0.00,0,WeatherCatV1.15B25,2013-08-19 02:03:00,
2013-08-18 21:04:00,73.3,63.7,29.96,SSE,153,0.0,3.0,72,0.00,,,0.00,0,WeatherCatV1.15B25,2013-08-19 02:04:00,
2013-08-18 21:05:00,73.3,63.7,29.96,SSE,153,2.0,2.0,72,0.00,,,0.00,0,WeatherCatV1.15B25,2013-08-19 02:05:00,
2013-08-18 21:07:00,73.2,63.6,29.96,SSE,153,0.0,4.0,72,0.00,,,0.00,0,WeatherCatV1.15B25,2013-08-19 02:07:00,
2013-08-18 21:09:00,73.2,63.6,29.96,SSE,153,2.0,6.0,72,0.00,,,0.00,0,WeatherCatV1.15B25,2013-08-19 02:09:00,
2013-08-18 21:10:00,73.1,63.5,29.96,SSE,156,0.0,7.0,72,0.00,,,0.00,0,WeatherCatV1.15B25,2013-08-19 02:10:00,
2013-08-18 21:11:00,73.1,63.5,29.96,SSE,157,2.0,7.0,72,0.00,,,0.00,0,WeatherCatV1.15B25,2013-08-19 02:11:00,
2013-08-18 21:12:00,73.1,63.5,29.96,SSE,156,0.0,3.0,72,0.00,,,0.00,0,WeatherCatV1.15B25,2013-08-19 02:12:00,
2013-08-18 21:14:00,73.1,63.5,29.96,SSE,157,2.0,3.0,72,0.00,,,0.00,0,WeatherCatV1.15B25,2013-08-19 02:14:00,
2013-08-18 21:15:00,73.0,63.4,29.96,SSE,165,0.0,6.0,72,0.00,,,0.00,0,WeatherCatV1.15B25,2013-08-19 02:15:00,
2013-08-18 21:16:00,73.0,63.4,29.96,SSE,165,3.0,6.0,72,0.00,,,0.00,0,WeatherCatV1.15B25,2013-08-19 02:16:00,
2013-08-18 21:18:00,73.0,63.4,29.96,SSE,160,0.0,6.0,72,0.00,,,0.00,0,WeatherCatV1.15B25,2013-08-19 02:18:00,
2013-08-18 21:19:00,73.0,63.4,29.96,SSE,156,0.0,5.0,72,0.00,,,0.00,0,WeatherCatV1.15B25,2013-08-19 02:19:00,
2013-08-18 21:20:00,73.0,63.4,29.96,SSE,158,3.0,4.0,72,0.00,,,0.00,0,WeatherCatV1.15B25,2013-08-19 02:20:00,
2013-08-18 21:21:00,73.0,63.4,29.96,SSE,158,0.0,4.0,72,0.00,,,0.00,0,WeatherCatV1.15B25,2013-08-19 02:21:00,
2013-08-18 21:23:00,73.0,63.4,29.97,SSE,161,1.0,5.0,72,0.00,,,0.00,0,WeatherCatV1.15B25,2013-08-19 02:23:00,
2013-08-18 21:24:00,73.0,63.4,29.97,SSE,156,0.0,4.0,72,0.00,,,0.00,0,WeatherCatV1.15B25,2013-08-19 02:24:00,
2013-08-18 21:25:00,73.0,63.4,29.97,SSE,156,0.0,4.0,72,0.00,,,0.00,0,WeatherCatV1.15B25,2013-08-19 02:25:00,
2013-08-18 21:26:00,73.0,63.4,29.97,SE,136,0.0,5.0,72,0.00,,,0.00,0,WeatherCatV1.15B25,2013-08-19 02:26:00,
2013-08-18 21:28:00,73.0,63.4,29.97,SSE,149,1.0,5.0,72,0.00,,,0.00,0,WeatherCatV1.15B25,2013-08-19 02:28:00,
2013-08-18 21:29:00,73.0,63.4,29.97,SSE,149,1.0,5.0,72,0.00,,,0.00,0,WeatherCatV1.15B25,2013-08-19 02:29:00,
2013-08-18 21:30:00,73.0,63.4,29.97,SSE,149,0.0,5.0,72,0.00,,,0.00,0,WeatherCatV1.15B25,2013-08-19 02:30:00,
2013-08-18 21:31:00,72.9,63.3,29.97,SSE,152,0.0,10.0,72,0.00,,,0.00,0,WeatherCatV1.15B25,2013-08-19 02:31:00,
2013-08-18 21:34:00,72.9,63.3,29.97,SSE,149,4.0,10.0,72,0.00,,,0.00,0,WeatherCatV1.15B25,2013-08-19 02:34:00,
2013-08-18 21:35:00,72.9,63.3,29.97,SSE,153,0.0,10.0,72,0.00,,,0.00,0,WeatherCatV1.15B25,2013-08-19 02:35:00,
2013-08-18 21:36:00,72.8,63.2,29.97,South,169,2.0,6.0,72,0.00,,,0.00,0,WeatherCatV1.15B25,2013-08-19 02:36:00,
2013-08-18 21:39:00,72.8,63.2,29.97,SSE,157,3.0,6.0,72,0.00,,,0.00,0,WeatherCatV1.15B25,2013-08-19 02:39:00,
2013-08-18 21:40:00,72.8,63.2,29.97,SSE,155,6.0,6.0,72,0.00,,,0.00,0,WeatherCatV1.15B25,2013-08-19 02:40:00,
2013-08-18 21:41:00,72.8,63.2,29.97,SSE,150,4.0,7.0,72,0.00,,,0.00,0,WeatherCatV1.15B25,2013-08-19 02:41:00,
2013-08-18 21:44:00,72.8,63.2,29.98,South,170,1.0,10.0,72,0.00,,,0.00,0,WeatherCatV1.15B25,2013-08-19 02:44:00,
2013-08-18 21:45:00,72.8,63.2,29.98,South,181,4.0,10.0,72,0.00,,,0.00,0,WeatherCatV1.15B25,2013-08-19 02:45:00,
2013-08-18 21:46:00,72.8,63.2,29.98,SE,128,3.0,7.0,72,0.00,,,0.00,0,WeatherCatV1.15B25,2013-08-19 02:46:00,
2013-08-18 21:47:00,72.7,63.1,29.98,SSE,155,3.0,6.0,72,0.00,,,0.00,0,WeatherCatV1.15B25,2013-08-19 02:47:00,
2013-08-18 21:50:00,72.7,63.5,29.98,South,171,6.0,9.0,73,0.00,,,0.00,0,WeatherCatV1.15B25,2013-08-19 02:50:00,
2013-08-18 21:51:00,72.6,63.4,29.98,ESE,123,7.0,9.0,73,0.00,,,0.00,0,WeatherCatV1.15B25,2013-08-19 02:51:00,
2013-08-18 21:52:00,72.6,63.4,29.98,SSE,153,0.0,8.0,73,0.00,,,0.00,0,WeatherCatV1.15B25,2013-08-19 02:52:00,
2013-08-18 21:55:00,72.5,63.3,29.98,SSE,153,3.0,10.0,73,0.00,,,0.00,0,WeatherCatV1.15B25,2013-08-19 02:55:00,
2013-08-18 21:56:00,72.5,63.3,29.98,SSE,154,0.0,10.0,73,0.00,,,0.00,0,WeatherCatV1.15B25,2013-08-19 02:56:00,
2013-08-18 21:57:00,72.4,63.2,29.98,SE,144,2.0,4.0,73,0.00,,,0.00,0,WeatherCatV1.15B25,2013-08-19 02:57:00,
2013-08-18 22:00:00,72.3,63.5,29.99,SE,145,0.0,5.0,74,0.00,,,0.00,0,WeatherCatV1.15B25,2013-08-19 03:00:00,
2013-08-18 22:01:00,72.3,63.5,29.98,SE,140,5.0,5.0,74,0.00,,,0.00,0,WeatherCatV1.15B25,2013-08-19 03:01:00,
2013-08-18 22:02:00,72.2,63.4,29.98,SE,140,3.0,5.0,74,0.00,,,0.00,0,WeatherCatV1.15B25,2013-08-19 03:02:00,
2013-08-18 22:05:00,72.2,63.4,29.98,SE,142,3.0,4.0,74,0.00,,,0.00,0,WeatherCatV1.15B25,2013-08-19 03:05:00,
2013-08-18 22:06:00,72.2,63.4,29.98,SSW,205,4.0,4.0,74,0.00,,,0.00,0,WeatherCatV1.15B25,2013-08-19 03:06:00,
2013-08-18 22:07:00,72.1,63.3,29.98,SSE,147,1.0,6.0,74,0.00,,,0.00,0,WeatherCatV1.15B25,2013-08-19 03:07:00,
2013-08-18 22:10:00,72.0,63.2,29.98,South,178,0.0,10.0,74,0.00,,,0.00,0,WeatherCatV1.15B25,2013-08-19 03:10:00,
2013-08-18 22:11:00,71.9,63.1,29.98,South,176,5.0,5.0,74,0.00,,,0.00,0,WeatherCatV1.15B25,2013-08-19 03:11:00,
2013-08-18 22:12:00,71.9,63.5,29.98,SSE,167,6.0,7.0,75,0.00,,,0.00,0,WeatherCatV1.15B25,2013-08-19 03:12:00,
2013-08-18 22:15:00,71.8,63.4,29.98,SE,141,4.0,4.0,75,0.00,,,0.00,0,WeatherCatV1.15B25,2013-08-19 03:15:00,
2013-08-18 22:16:00,71.8,63.4,29.98,SE,146,2.0,4.0,75,0.00,,,0.00,0,WeatherCatV1.15B25,2013-08-19 03:16:00,
2013-08-18 22:17:00,71.7,63.3,29.99,SSE,150,1.0,6.0,75,0.00,,,0.00,0,WeatherCatV1.15B25,2013-08-19 03:17:00,
2013-08-18 22:21:00,71.7,63.3,29.98,South,180,3.0,6.0,75,0.00,,,0.00,0,WeatherCatV1.15B25,2013-08-19 03:21:00,
2013-08-18 22:22:00,71.7,63.3,29.98,South,178,0.0,6.0,75,0.00,,,0.00,0,WeatherCatV1.15B25,2013-08-19 03:22:00,
2013-08-18 22:26:00,71.6,63.2,29.98,SSE,164,5.0,5.0,75,0.00,,,0.00,0,WeatherCatV1.15B25,2013-08-19 03:26:00,
2013-08-18 22:27:00,71.5,63.1,29.98,SSE,167,2.0,6.0,75,0.00,,,0.00,0,WeatherCatV1.15B25,2013-08-19 03:27:00,
2013-08-18 22:31:00,71.4,63.0,29.99,SSE,167,3.0,6.0,75,0.00,,,0.00,0,WeatherCatV1.15B25,2013-08-19 03:31:00,
2013-08-18 22:32:00,71.4,63.0,29.99,SSE,167,1.0,6.0,75,0.00,,,0.00,0,WeatherCatV1.15B25,2013-08-19 03:32:00,
2013-08-18 22:33:00,71.4,63.0,29.99,SSE,161,2.0,6.0,75,0.00,,,0.00,0,WeatherCatV1.15B25,2013-08-19 03:33:00,
2013-08-18 22:36:00,71.3,63.3,29.99,SSE,160,2.0,3.0,76,0.00,,,0.00,0,WeatherCatV1.15B25,2013-08-19 03:36:00,
2013-08-18 22:37:00,71.3,63.3,29.99,SSE,159,3.0,3.0,76,0.00,,,0.00,0,WeatherCatV1.15B25,2013-08-19 03:37:00,
2013-08-18 22:38:00,71.3,63.3,29.99,SSE,156,4.0,5.0,76,0.00,,,0.00,0,WeatherCatV1.15B25,2013-08-19 03:38:00,
2013-08-18 22:41:00,71.3,63.3,29.98,South,182,4.0,6.0,76,0.00,,,0.00,0,WeatherCatV1.15B25,2013-08-19 03:41:00,
2013-08-18 22:42:00,71.3,63.3,29.98,South,182,0.0,6.0,76,0.00,,,0.00,0,WeatherCatV1.15B25,2013-08-19 03:42:00,
2013-08-18 22:43:00,71.3,63.3,29.98,South,182,4.0,6.0,76,0.00,,,0.00,0,WeatherCatV1.15B25,2013-08-19 03:43:00,
2013-08-18 22:47:00,71.2,63.6,29.98,South,176,1.0,5.0,77,0.00,,,0.00,0,WeatherCatV1.15B25,2013-08-19 03:47:00,
2013-08-18 22:48:00,71.2,63.6,29.98,South,176,2.0,4.0,77,0.00,,,0.00,0,WeatherCatV1.15B25,2013-08-19 03:48:00,
2013-08-18 22:52:00,71.1,63.5,29.98,South,174,3.0,5.0,77,0.00,,,0.00,0,WeatherCatV1.15B25,2013-08-19 03:52:00,
2013-08-18 22:54:00,71.0,63.4,29.98,South,172,1.0,6.0,77,0.00,,,0.00,0,WeatherCatV1.15B25,2013-08-19 03:54:00,
2013-08-18 22:57:00,70.9,63.3,29.97,SSW,192,3.0,9.0,77,0.00,,,0.00,0,WeatherCatV1.15B25,2013-08-19 03:57:00,
2013-08-18 22:58:00,70.9,63.3,29.97,South,172,4.0,9.0,77,0.00,,,0.00,0,WeatherCatV1.15B25,2013-08-19 03:58:00,
2013-08-18 22:59:00,70.8,63.2,29.97,South,172,3.0,5.0,77,0.00,,,0.00,0,WeatherCatV1.15B25,2013-08-19 03:59:00,
2013-08-18 23:01:00,70.8,63.2,29.97,SSW,196,6.0,8.0,77,0.00,,,0.00,0,WeatherCatV1.15B25,2013-08-19 04:01:00,
2013-08-18 23:06:00,70.5,63.3,29.98,South,180,2.0,5.0,78,0.00,,,0.00,0,WeatherCatV1.15B25,2013-08-19 04:06:00,
2013-08-18 23:11:00,70.3,63.1,29.97,South,184,4.0,5.0,78,0.00,,,0.00,0,WeatherCatV1.15B25,2013-08-19 04:11:00,
2013-08-18 23:12:00,70.3,63.5,29.97,South,184,1.0,5.0,79,0.00,,,0.00,0,WeatherCatV1.15B25,2013-08-19 04:12:00,
2013-08-18 23:16:00,70.1,63.3,29.97,South,178,1.0,6.0,79,0.00,,,0.00,0,WeatherCatV1.15B25,2013-08-19 04:16:00,
2013-08-18 23:17:00,70.1,63.3,29.97,South,178,0.0,3.0,79,0.00,,,0.00,0,WeatherCatV1.15B25,2013-08-19 04:17:00,
2013-08-18 23:21:00,69.9,63.1,29.97,South,169,0.0,9.0,79,0.00,,,0.00,0,WeatherCatV1.15B25,2013-08-19 04:21:00,
2013-08-18 23:22:00,69.9,63.1,29.97,SSE,163,2.0,10.0,79,0.00,,,0.00,0,WeatherCatV1.15B25,2013-08-19 04:22:00,
2013-08-18 23:26:00,69.8,63.0,29.97,SSE,165,0.0,3.0,79,0.00,,,0.00,0,WeatherCatV1.15B25,2013-08-19 04:26:00,
2013-08-18 23:27:00,69.7,63.2,29.97,SSE,165,3.0,3.0,80,0.00,,,0.00,0,WeatherCatV1.15B25,2013-08-19 04:27:00,
2013-08-18 23:31:00,69.6,63.1,29.97,South,171,0.0,6.0,80,0.00,,,0.00,0,WeatherCatV1.15B25,2013-08-19 04:31:00,
2013-08-18 23:32:00,69.6,63.1,29.97,South,171,0.0,6.0,80,0.00,,,0.00,0,WeatherCatV1.15B25,2013-08-19 04:32:00,
2013-08-18 23:37:00,69.5,63.0,29.97,SSE,161,3.0,6.0,80,0.00,,,0.00,0,WeatherCatV1.15B25,2013-08-19 04:37:00,
2013-08-18 23:42:00,69.6,63.1,29.97,South,190,2.0,7.0,80,0.00,,,0.00,0,WeatherCatV1.15B25,2013-08-19 04:42:00,
2013-08-18 23:43:00,69.6,63.1,29.97,SSE,165,3.0,4.0,80,0.00,,,0.00,0,WeatherCatV1.15B25,2013-08-19 04:43:00,
2013-08-18 23:47:00,69.5,63.0,29.97,South,171,2.0,6.0,80,0.00,,,0.00,0,WeatherCatV1.15B25,2013-08-19 04:47:00,
2013-08-18 23:48:00,69.5,63.0,29.97,South,169,4.0,5.0,80,0.00,,,0.00,0,WeatherCatV1.15B25,2013-08-19 04:48:00,
2013-08-18 23:52:00,69.4,63.0,29.97,South,169,2.0,3.0,80,0.00,,,0.00,0,WeatherCatV1.15B25,2013-08-19 04:52:00,
2013-08-18 23:53:00,69.4,63.0,29.97,South,169,0.0,3.0,80,0.00,,,0.00,0,WeatherCatV1.15B25,2013-08-19 04:53:00,
2013-08-18 23:57:00,69.2,62.8,29.97,South,171,4.0,6.0,80,0.00,,,0.00,0,WeatherCatV1.15B25,2013-08-19 04:57:00,
2013-08-18 23:58:00,69.2,62.8,29.97,South,173,1.0,6.0,80,0.00,,,0.00,0,WeatherCatV1.15B25,2013-08-19 04:58:00,
2013-08-18 23:59:00,69.2,63.1,29.97,South,173,1.0,4.0,81,0.00,,,0.00,0,WeatherCatV1.15B25,2013-08-19 04:59:00,